Time,TemperatureF,DewpointF,PressureIn,WindDirection,WindDirectionDegrees,WindSpeedMPH,WindSpeedGustMPH,Humidity,HourlyPrecipIn,Conditions,Clouds,dailyrainin,SolarRadiationWatts/m^2,SoftwareType,DateUTC
2013-08-30 00:00:00,82.0,75.6,29.98,SW,216,2.0,2.0,81,0.00,,FEW,0.00,0.00,VWS V14.01,2013-08-30 04:00:00,
2013-08-30 00:01:00,82.0,75.6,29.98,SW,226,2.0,2.0,81,0.00,,FEW,0.00,0.00,VWS V14.01,2013-08-30 04:01:00,
2013-08-30 00:06:00,81.9,75.9,29.98,WSW,250,2.0,3.0,82,0.00,,FEW,0.00,0.00,VWS V14.01,2013-08-30 04:06:00,
2013-08-30 00:07:00,81.9,75.9,29.98,WSW,245,0.0,3.0,82,0.00,,FEW,0.00,0.00,VWS V14.01,2013-08-30 04:07:00,
2013-08-30 00:11:00,81.8,75.8,29.98,WSW,240,1.0,3.0,82,0.00,,FEW,0.00,0.00,VWS V14.01,2013-08-30 04:11:00,
2013-08-30 00:12:00,81.8,75.8,29.98,WSW,250,0.0,3.0,82,0.00,,FEW,0.00,0.00,VWS V14.01,2013-08-30 04:12:00,
2013-08-30 00:13:00,81.8,75.8,29.98,WSW,250,2.0,2.0,82,0.00,,FEW,0.00,0.00,VWS V14.01,2013-08-30 04:13:00,
2013-08-30 00:16:00,81.8,75.8,29.98,WSW,257,2.0,3.0,82,0.00,,FEW,0.00,0.00,VWS V14.01,2013-08-30 04:16:00,
2013-08-30 00:17:00,81.7,75.7,29.97,WSW,257,1.0,3.0,82,0.00,,FEW,0.00,0.00,VWS V14.01,2013-08-30 04:17:00,
2013-08-30 00:18:00,81.7,75.7,29.97,West,263,1.0,3.0,82,0.00,,FEW,0.00,0.00,VWS V14.01,2013-08-30 04:18:00,
2013-08-30 00:21:00,81.6,75.6,29.97,West,265,2.0,4.0,82,0.00,,FEW,0.00,0.00,VWS V14.01,2013-08-30 04:21:00,
2013-08-30 00:22:00,81.6,75.6,29.97,West,265,1.0,4.0,82,0.00,,FEW,0.00,0.00,VWS V14.01,2013-08-30 04:22:00,
2013-08-30 00:23:00,81.6,75.6,29.97,West,265,1.0,2.0,82,0.00,,FEW,0.00,0.00,VWS V14.01,2013-08-30 04:23:00,
2013-08-30 00:26:00,81.5,75.5,29.97,West,266,1.0,2.0,82,0.00,,FEW,0.00,0.00,VWS V14.01,2013-08-30 04:26:00,
2013-08-30 00:27:00,81.5,75.5,29.97,West,265,2.0,2.0,82,0.00,,FEW,0.00,0.00,VWS V14.01,2013-08-30 04:27:00,
2013-08-30 00:28:00,81.5,75.5,29.97,West,267,1.0,2.0,82,0.00,,FEW,0.00,0.00,VWS V14.01,2013-08-30 04:28:00,
2013-08-30 00:29:00,81.5,75.5,29.97,West,267,2.0,2.0,82,0.00,,FEW,0.00,0.00,VWS V14.01,2013-08-30 04:29:00,
2013-08-30 00:31:00,81.4,75.4,29.97,West,267,0.0,2.0,82,0.00,,FEW,0.00,0.00,VWS V14.01,2013-08-30 04:31:00,
2013-08-30 00:32:00,81.4,75.4,29.97,West,267,1.0,2.0,82,0.00,,FEW,0.00,0.00,VWS V14.01,2013-08-30 04:32:00,
2013-08-30 00:33:00,81.4,75.4,29.97,West,267,0.0,0.0,82,0.00,,FEW,0.00,0.00,VWS V14.01,2013-08-30 04:33:00,
2013-08-30 00:34:00,81.4,75.4,29.97,West,267,0.0,2.0,82,0.00,,FEW,0.00,0.00,VWS V14.01,2013-08-30 04:34:00,
2013-08-30 00:36:00,81.4,75.4,29.97,West,267,0.0,2.0,82,0.00,,FEW,0.00,0.00,VWS V14.01,2013-08-30 04:36:00,
2013-08-30 00:37:00,81.3,75.3,29.97,West,267,1.0,2.0,82,0.00,,FEW,0.00,0.00,VWS V14.01,2013-08-30 04:37:00,
2013-08-30 00:38:00,81.3,75.3,29.97,West,267,0.0,2.0,82,0.00,,FEW,0.00,0.00,VWS V14.01,2013-08-30 04:38:00,
2013-08-30 00:39:00,81.3,75.3,29.97,West,267,0.0,2.0,82,0.00,,FEW,0.00,0.00,VWS V14.01,2013-08-30 04:39:00,
2013-08-30 00:41:00,81.2,75.2,29.97,West,267,0.0,2.0,82,0.00,,FEW,0.00,0.00,VWS V14.01,2013-08-30 04:41:00,
2013-08-30 00:42:00,81.2,75.2,29.97,West,267,0.0,2.0,82,0.00,,FEW,0.00,0.00,VWS V14.01,2013-08-30 04:42:00,
2013-08-30 00:43:00,81.2,75.2,29.97,West,267,1.0,1.0,82,0.00,,FEW,0.00,0.00,VWS V14.01,2013-08-30 04:43:00,
2013-08-30 00:44:00,81.2,75.2,29.97,West,267,2.0,2.0,82,0.00,,FEW,0.00,0.00,VWS V14.01,2013-08-30 04:44:00,
2013-08-30 00:45:00,81.2,75.2,29.97,West,267,0.0,2.0,82,0.00,,FEW,0.00,0.00,VWS V14.01,2013-08-30 04:45:00,
2013-08-30 00:46:00,81.2,75.6,29.97,West,267,1.0,2.0,83,0.00,,FEW,0.00,0.00,VWS V14.01,2013-08-30 04:46:00,
2013-08-30 00:47:00,81.2,75.6,29.97,West,267,0.0,2.0,83,0.00,,FEW,0.00,0.00,VWS V14.01,2013-08-30 04:47:00,
2013-08-30 00:48:00,81.2,75.6,29.97,West,267,1.0,2.0,83,0.00,,FEW,0.00,0.00,VWS V14.01,2013-08-30 04:48:00,
2013-08-30 00:49:00,81.2,75.6,29.97,West,267,0.0,2.0,83,0.00,,FEW,0.00,0.00,VWS V14.01,2013-08-30 04:49:00,
2013-08-30 00:50:00,81.2,75.6,29.97,West,267,0.0,2.0,83,0.00,,FEW,0.00,0.00,VWS V14.01,2013-08-30 04:50:00,
2013-08-30 00:51:00,81.2,75.6,29.97,West,267,0.0,2.0,83,0.00,,FEW,0.00,0.00,VWS V14.01,2013-08-30 04:51:00,
2013-08-30 00:52:00,81.1,75.4,29.97,West,267,1.0,2.0,83,0.00,,FEW,0.00,0.00,VWS V14.01,2013-08-30 04:52:00,
2013-08-30 00:53:00,81.1,75.4,29.97,West,267,0.0,2.0,83,0.00,,FEW,0.00,0.00,VWS V14.01,2013-08-30 04:53:00,
2013-08-30 00:54:00,81.2,75.6,29.97,West,267,0.0,0.0,83,0.00,,FEW,0.00,0.00,VWS V14.01,2013-08-30 04:54:00,
2013-08-30 00:56:00,81.1,75.4,29.97,West,267,0.0,0.0,83,0.00,,FEW,0.00,0.00,VWS V14.01,2013-08-30 04:56:00,
2013-08-30 00:58:00,81.1,75.4,29.97,West,267,0.0,0.0,83,0.00,,FEW,0.00,0.00,VWS V14.01,2013-08-30 04:58:00,
2013-08-30 00:59:00,81.1,75.4,29.97,West,267,0.0,0.0,83,0.00,,FEW,0.00,0.00,VWS V14.01,2013-08-30 04:59:00,
2013-08-30 01:01:00,81.1,75.4,29.97,West,267,0.0,0.0,83,0.00,,FEW,0.00,0.00,VWS V14.01,2013-08-30 05:01:00,
2013-08-30 01:03:00,81.0,75.3,29.97,West,267,0.0,0.0,83,0.00,,FEW,0.00,0.00,VWS V14.01,2013-08-30 05:03:00,
2013-08-30 01:04:00,81.0,75.3,29.97,West,267,0.0,0.0,83,0.00,,FEW,0.00,0.00,VWS V14.01,2013-08-30 05:04:00,
2013-08-30 01:06:00,81.0,75.3,29.97,West,267,0.0,0.0,83,0.00,,FEW,0.00,0.00,VWS V14.01,2013-08-30 05:06:00,
2013-08-30 01:08:00,81.0,75.3,29.97,West,267,0.0,0.0,83,0.00,,FEW,0.00,0.00,VWS V14.01,2013-08-30 05:08:00,
2013-08-30 01:09:00,80.9,75.3,29.97,West,267,1.0,1.0,83,0.00,,FEW,0.00,0.00,VWS V14.01,2013-08-30 05:09:00,
2013-08-30 01:10:00,80.9,75.3,29.97,West,267,0.0,1.0,83,0.00,,FEW,0.00,0.00,VWS V14.01,2013-08-30 05:10:00,
2013-08-30 01:11:00,80.9,75.3,29.97,West,267,0.0,1.0,83,0.00,,FEW,0.00,0.00,VWS V14.01,2013-08-30 05:11:00,
2013-08-30 01:13:00,80.9,75.3,29.97,West,267,0.0,0.0,83,0.00,,FEW,0.00,0.00,VWS V14.01,2013-08-30 05:13:00,
2013-08-30 01:14:00,80.8,75.2,29.97,West,267,1.0,1.0,83,0.00,,FEW,0.00,0.00,VWS V14.01,2013-08-30 05:14:00,
2013-08-30 01:15:00,80.8,75.2,29.97,West,267,0.0,1.0,83,0.00,,FEW,0.00,0.00,VWS V14.01,2013-08-30 05:15:00,
2013-08-30 01:16:00,80.8,75.2,29.97,West,267,0.0,1.0,83,0.00,,FEW,0.00,0.00,VWS V14.01,2013-08-30 05:16:00,
2013-08-30 01:18:00,80.8,74.8,29.97,West,267,0.0,1.0,82,0.00,,FEW,0.00,0.00,VWS V14.01,2013-08-30 05:18:00,
2013-08-30 01:20:00,80.7,74.7,29.97,West,267,0.0,1.0,82,0.00,,FEW,0.00,0.00,VWS V14.01,2013-08-30 05:20:00,
2013-08-30 01:21:00,80.7,74.7,29.97,West,267,0.0,1.0,82,0.00,,FEW,0.00,0.00,VWS V14.01,2013-08-30 05:21:00,
2013-08-30 01:22:00,80.7,74.7,29.97,West,267,0.0,1.0,82,0.00,,FEW,0.00,0.00,VWS V14.01,2013-08-30 05:22:00,
2013-08-30 01:23:00,80.7,74.7,29.97,West,267,0.0,1.0,82,0.00,,FEW,0.00,0.00,VWS V14.01,2013-08-30 05:23:00,
2013-08-30 01:24:00,80.7,74.7,29.97,West,267,0.0,1.0,82,0.00,,FEW,0.00,0.00,VWS V14.01,2013-08-30 05:24:00,
2013-08-30 01:25:00,80.7,74.7,29.97,West,267,0.0,1.0,82,0.00,,FEW,0.00,0.00,VWS V14.01,2013-08-30 05:25:00,
2013-08-30 01:26:00,80.6,74.6,29.97,West,267,1.0,1.0,82,0.00,,FEW,0.00,0.00,VWS V14.01,2013-08-30 05:26:00,
2013-08-30 01:27:00,80.6,74.6,29.97,West,267,0.0,1.0,82,0.00,,FEW,0.00,0.00,VWS V14.01,2013-08-30 05:27:00,
2013-08-30 01:28:00,80.6,74.6,29.97,West,267,0.0,2.0,82,0.00,,FEW,0.00,0.00,VWS V14.01,2013-08-30 05:28:00,
2013-08-30 01:29:00,80.6,74.6,29.97,West,267,1.0,2.0,82,0.00,,FEW,0.00,0.00,VWS V14.01,2013-08-30 05:29:00,
2013-08-30 01:30:00,80.6,74.6,29.97,West,267,0.0,2.0,82,0.00,,FEW,0.00,0.00,VWS V14.01,2013-08-30 05:30:00,
2013-08-30 01:31:00,80.6,74.6,29.97,West,267,0.0,2.0,82,0.00,,FEW,0.00,0.00,VWS V14.01,2013-08-30 05:31:00,
2013-08-30 01:32:00,80.6,74.6,29.97,West,267,1.0,2.0,82,0.00,,FEW,0.00,0.00,VWS V14.01,2013-08-30 05:32:00,
2013-08-30 01:33:00,80.6,75.0,29.96,West,267,0.0,2.0,83,0.00,,FEW,0.00,0.00,VWS V14.01,2013-08-30 05:33:00,
2013-08-30 01:34:00,80.6,75.0,29.96,West,267,0.0,2.0,83,0.00,,FEW,0.00,0.00,VWS V14.01,2013-08-30 05:34:00,
2013-08-30 01:35:00,80.6,75.0,29.96,West,267,1.0,2.0,83,0.00,,FEW,0.00,0.00,VWS V14.01,2013-08-30 05:35:00,
2013-08-30 01:36:00,80.6,75.0,29.96,West,267,0.0,2.0,83,0.00,,FEW,0.00,0.00,VWS V14.01,2013-08-30 05:36:00,
2013-08-30 01:37:00,80.6,75.0,29.96,West,267,1.0,2.0,83,0.00,,FEW,0.00,0.00,VWS V14.01,2013-08-30 05:37:00,
2013-08-30 01:39:00,80.6,75.0,29.96,West,267,0.0,2.0,83,0.00,,FEW,0.00,0.00,VWS V14.01,2013-08-30 05:39:00,
2013-08-30 01:40:00,80.6,75.0,29.96,West,267,0.0,2.0,83,0.00,,FEW,0.00,0.00,VWS V14.01,2013-08-30 05:40:00,
2013-08-30 01:41:00,80.6,74.6,29.96,West,267,0.0,2.0,82,0.00,,FEW,0.00,0.00,VWS V14.01,2013-08-30 05:41:00,
2013-08-30 01:42:00,80.5,74.5,29.96,West,267,0.0,2.0,82,0.00,,FEW,0.00,0.00,VWS V14.01,2013-08-30 05:42:00,
2013-08-30 01:44:00,80.6,74.6,29.96,West,267,1.0,1.0,82,0.00,,FEW,0.00,0.00,VWS V14.01,2013-08-30 05:44:00,
2013-08-30 01:45:00,80.5,74.5,29.96,West,267,1.0,1.0,82,0.00,,FEW,0.00,0.00,VWS V14.01,2013-08-30 05:45:00,
2013-08-30 01:46:00,80.5,74.5,29.96,West,267,0.0,1.0,82,0.00,,FEW,0.00,0.00,VWS V14.01,2013-08-30 05:46:00,
2013-08-30 01:47:00,80.5,74.5,29.96,West,267,1.0,1.0,82,0.00,,FEW,0.00,0.00,VWS V14.01,2013-08-30 05:47:00,
2013-08-30 01:49:00,80.5,74.5,29.96,West,267,1.0,1.0,82,0.00,,FEW,0.00,0.00,VWS V14.01,2013-08-30 05:49:00,
2013-08-30 01:51:00,80.5,74.9,29.96,West,267,1.0,2.0,83,0.00,,FEW,0.00,0.00,VWS V14.01,2013-08-30 05:51:00,
2013-08-30 01:52:00,80.6,74.6,29.96,West,267,0.0,2.0,82,0.00,,FEW,0.00,0.00,VWS V14.01,2013-08-30 05:52:00,
2013-08-30 01:53:00,80.5,74.5,29.96,West,267,1.0,2.0,82,0.00,,FEW,0.00,0.00,VWS V14.01,2013-08-30 05:53:00,
2013-08-30 01:54:00,80.5,74.5,29.96,West,267,0.0,1.0,82,0.00,,FEW,0.00,0.00,VWS V14.01,2013-08-30 05:54:00,
2013-08-30 01:55:00,80.5,74.5,29.96,West,267,0.0,1.0,82,0.00,,FEW,0.00,0.00,VWS V14.01,2013-08-30 05:55:00,
2013-08-30 01:56:00,80.6,74.6,29.96,West,267,0.0,1.0,82,0.00,,FEW,0.00,0.00,VWS V14.01,2013-08-30 05:56:00,
2013-08-30 01:57:00,80.5,74.5,29.96,West,267,0.0,1.0,82,0.00,,FEW,0.00,0.00,VWS V14.01,2013-08-30 05:57:00,
2013-08-30 01:58:00,80.5,74.5,29.96,West,267,0.0,1.0,82,0.00,,FEW,0.00,0.00,VWS V14.01,2013-08-30 05:58:00,
2013-08-30 01:59:00,80.6,74.6,29.96,West,267,0.0,1.0,82,0.00,,FEW,0.00,0.00,VWS V14.01,2013-08-30 05:59:00,
2013-08-30 02:00:00,80.5,74.5,29.96,West,267,0.0,1.0,82,0.00,,FEW,0.00,0.00,VWS V14.01,2013-08-30 06:00:00,
2013-08-30 02:01:00,80.5,74.9,29.96,West,267,0.0,1.0,83,0.00,,FEW,0.00,0.00,VWS V14.01,2013-08-30 06:01:00,
2013-08-30 02:02:00,80.5,74.9,29.96,West,267,0.0,1.0,83,0.00,,FEW,0.00,0.00,VWS V14.01,2013-08-30 06:02:00,
2013-08-30 02:03:00,80.5,74.9,29.96,West,267,0.0,0.0,83,0.00,,FEW,0.00,0.00,VWS V14.01,2013-08-30 06:03:00,
2013-08-30 02:04:00,80.6,75.0,29.96,West,267,0.0,0.0,83,0.00,,FEW,0.00,0.00,VWS V14.01,2013-08-30 06:04:00,
2013-08-30 02:05:00,80.6,75.0,29.96,West,267,0.0,0.0,83,0.00,,FEW,0.00,0.00,VWS V14.01,2013-08-30 06:05:00,
2013-08-30 02:07:00,80.6,75.0,29.96,West,267,0.0,0.0,83,0.00,,FEW,0.00,0.00,VWS V14.01,2013-08-30 06:07:00,
2013-08-30 02:08:00,80.6,75.0,29.96,West,267,1.0,1.0,83,0.00,,FEW,0.00,0.00,VWS V14.01,2013-08-30 06:08:00,
2013-08-30 02:09:00,80.6,75.0,29.96,West,267,0.0,1.0,83,0.00,,FEW,0.00,0.00,VWS V14.01,2013-08-30 06:09:00,
2013-08-30 02:10:00,80.6,75.0,29.96,West,267,0.0,1.0,83,0.00,,FEW,0.00,0.00,VWS V14.01,2013-08-30 06:10:00,
2013-08-30 02:12:00,80.5,74.9,29.96,West,267,0.0,1.0,83,0.00,,FEW,0.00,0.00,VWS V14.01,2013-08-30 06:12:00,
2013-08-30 02:13:00,80.6,75.0,29.96,West,267,0.0,1.0,83,0.00,,FEW,0.00,0.00,VWS V14.01,2013-08-30 06:13:00,
2013-08-30 02:14:00,80.6,75.0,29.96,West,267,0.0,2.0,83,0.00,,FEW,0.00,0.00,VWS V14.01,2013-08-30 06:14:00,
2013-08-30 02:15:00,80.6,75.0,29.96,West,267,0.0,2.0,83,0.00,,FEW,0.00,0.00,VWS V14.01,2013-08-30 06:15:00,
2013-08-30 02:17:00,80.5,74.9,29.96,West,267,0.0,2.0,83,0.00,,FEW,0.00,0.00,VWS V14.01,2013-08-30 06:17:00,
2013-08-30 02:18:00,80.6,75.0,29.96,West,267,0.0,2.0,83,0.00,,FEW,0.00,0.00,VWS V14.01,2013-08-30 06:18:00,
2013-08-30 02:19:00,80.6,75.0,29.96,West,267,0.0,2.0,83,0.00,,FEW,0.00,0.00,VWS V14.01,2013-08-30 06:19:00,
2013-08-30 02:20:00,80.6,75.0,29.96,West,267,0.0,2.0,83,0.00,,FEW,0.00,0.00,VWS V14.01,2013-08-30 06:20:00,
2013-08-30 02:22:00,80.5,74.9,29.96,West,267,0.0,2.0,83,0.00,,FEW,0.00,0.00,VWS V14.01,2013-08-30 06:22:00,
2013-08-30 02:23:00,80.6,75.0,29.96,West,267,0.0,0.0,83,0.00,,FEW,0.00,0.00,VWS V14.01,2013-08-30 06:23:00,
2013-08-30 02:24:00,80.6,75.0,29.96,West,267,0.0,0.0,83,0.00,,FEW,0.00,0.00,VWS V14.01,2013-08-30 06:24:00,
2013-08-30 02:25:00,80.5,74.9,29.96,West,267,0.0,0.0,83,0.00,,FEW,0.00,0.00,VWS V14.01,2013-08-30 06:25:00,
2013-08-30 02:27:00,80.5,74.9,29.96,West,267,0.0,0.0,83,0.00,,FEW,0.00,0.00,VWS V14.01,2013-08-30 06:27:00,
2013-08-30 02:28:00,80.5,74.9,29.96,West,267,0.0,0.0,83,0.00,,FEW,0.00,0.00,VWS V14.01,2013-08-30 06:28:00,
2013-08-30 02:29:00,80.5,74.9,29.96,West,267,0.0,0.0,83,0.00,,FEW,0.00,0.00,VWS V14.01,2013-08-30 06:29:00,
2013-08-30 02:30:00,80.5,74.9,29.96,West,267,0.0,1.0,83,0.00,,FEW,0.00,0.00,VWS V14.01,2013-08-30 06:30:00,
2013-08-30 02:32:00,80.5,74.9,29.95,West,267,0.0,1.0,83,0.00,,FEW,0.00,0.00,VWS V14.01,2013-08-30 06:32:00,
2013-08-30 02:34:00,80.5,74.9,29.95,West,267,0.0,0.0,83,0.00,,FEW,0.00,0.00,VWS V14.01,2013-08-30 06:34:00,
2013-08-30 02:35:00,80.5,74.9,29.95,West,267,0.0,0.0,83,0.00,,FEW,0.00,0.00,VWS V14.01,2013-08-30 06:35:00,
2013-08-30 02:36:00,80.5,74.9,29.95,West,267,0.0,0.0,83,0.00,,FEW,0.00,0.00,VWS V14.01,2013-08-30 06:36:00,
2013-08-30 02:37:00,80.5,74.9,29.95,West,267,1.0,1.0,83,0.00,,FEW,0.00,0.00,VWS V14.01,2013-08-30 06:37:00,
2013-08-30 02:39:00,80.5,74.9,29.95,West,267,0.0,1.0,83,0.00,,FEW,0.00,0.00,VWS V14.01,2013-08-30 06:39:00,
2013-08-30 02:40:00,80.5,74.9,29.95,West,267,0.0,1.0,83,0.00,,FEW,0.00,0.00,VWS V14.01,2013-08-30 06:40:00,
2013-08-30 02:41:00,80.5,74.9,29.95,West,267,0.0,1.0,83,0.00,,FEW,0.00,0.00,VWS V14.01,2013-08-30 06:41:00,
2013-08-30 02:42:00,80.5,74.9,29.95,West,267,0.0,1.0,83,0.00,,FEW,0.00,0.00,VWS V14.01,2013-08-30 06:42:00,
2013-08-30 02:44:00,80.5,75.2,29.95,West,267,0.0,0.0,84,0.00,,FEW,0.00,0.00,VWS V14.01,2013-08-30 06:44:00,
2013-08-30 02:45:00,80.5,75.2,29.95,West,267,0.0,0.0,84,0.00,,FEW,0.00,0.00,VWS V14.01,2013-08-30 06:45:00,
2013-08-30 02:47:00,80.5,75.2,29.94,West,267,0.0,0.0,84,0.00,,FEW,0.00,0.00,VWS V14.01,2013-08-30 06:47:00,
2013-08-30 02:49:00,80.5,75.2,29.94,West,267,1.0,1.0,84,0.00,,FEW,0.00,0.00,VWS V14.01,2013-08-30 06:49:00,
2013-08-30 02:50:00,80.5,75.2,29.94,West,267,0.0,1.0,84,0.00,,FEW,0.00,0.00,VWS V14.01,2013-08-30 06:50:00,
2013-08-30 02:52:00,80.5,75.2,29.94,West,267,0.0,1.0,84,0.00,,FEW,0.00,0.00,VWS V14.01,2013-08-30 06:52:00,
2013-08-30 02:55:00,80.4,75.1,29.94,West,267,0.0,1.0,84,0.00,,FEW,0.00,0.00,VWS V14.01,2013-08-30 06:55:00,
2013-08-30 02:57:00,80.4,75.1,29.94,West,267,0.0,1.0,84,0.00,,FEW,0.00,0.00,VWS V14.01,2013-08-30 06:57:00,
2013-08-30 02:58:00,80.3,75.0,29.94,West,267,0.0,1.0,84,0.00,,FEW,0.00,0.00,VWS V14.01,2013-08-30 06:58:00,
2013-08-30 03:00:00,80.3,75.0,29.94,West,267,0.0,1.0,84,0.00,,FEW,0.00,0.00,VWS V14.01,2013-08-30 07:00:00,
2013-08-30 03:02:00,80.3,75.0,29.94,West,267,0.0,1.0,84,0.00,,FEW,0.00,0.00,VWS V14.01,2013-08-30 07:02:00,
2013-08-30 03:03:00,80.3,75.0,29.94,West,267,0.0,0.0,84,0.00,,FEW,0.00,0.00,VWS V14.01,2013-08-30 07:03:00,
2013-08-30 03:05:00,80.3,75.0,29.94,West,267,0.0,0.0,84,0.00,,FEW,0.00,0.00,VWS V14.01,2013-08-30 07:05:00,
2013-08-30 03:06:00,80.3,75.0,29.94,West,267,0.0,0.0,84,0.00,,FEW,0.00,0.00,VWS V14.01,2013-08-30 07:06:00,
2013-08-30 03:07:00,80.2,74.9,29.94,West,267,0.0,0.0,84,0.00,,FEW,0.00,0.00,VWS V14.01,2013-08-30 07:07:00,
2013-08-30 03:09:00,80.2,74.9,29.94,West,267,0.0,1.0,84,0.00,,FEW,0.00,0.00,VWS V14.01,2013-08-30 07:09:00,
2013-08-30 03:10:00,80.2,74.9,29.94,West,267,0.0,1.0,84,0.00,,FEW,0.00,0.00,VWS V14.01,2013-08-30 07:10:00,
2013-08-30 03:12:00,80.2,74.9,29.94,West,267,0.0,1.0,84,0.00,,FEW,0.00,0.00,VWS V14.01,2013-08-30 07:12:00,
2013-08-30 03:13:00,80.2,74.9,29.94,West,267,0.0,1.0,84,0.00,,FEW,0.00,0.00,VWS V14.01,2013-08-30 07:13:00,
2013-08-30 03:14:00,80.2,74.9,29.94,West,267,0.0,0.0,84,0.00,,FEW,0.00,0.00,VWS V14.01,2013-08-30 07:14:00,
2013-08-30 03:15:00,80.2,74.9,29.94,West,267,0.0,1.0,84,0.00,,FEW,0.00,0.00,VWS V14.01,2013-08-30 07:15:00,
2013-08-30 03:17:00,80.2,74.9,29.94,West,267,1.0,1.0,84,0.00,,FEW,0.00,0.00,VWS V14.01,2013-08-30 07:17:00,
2013-08-30 03:18:00,80.1,74.8,29.93,West,267,0.0,2.0,84,0.00,,FEW,0.00,0.00,VWS V14.01,2013-08-30 07:18:00,
2013-08-30 03:19:00,80.1,74.8,29.93,West,267,0.0,2.0,84,0.00,,FEW,0.00,0.00,VWS V14.01,2013-08-30 07:19:00,
2013-08-30 03:21:00,80.1,74.8,29.93,West,267,1.0,2.0,84,0.00,,FEW,0.00,0.00,VWS V14.01,2013-08-30 07:21:00,
2013-08-30 03:22:00,80.2,74.9,29.93,West,267,0.0,2.0,84,0.00,,FEW,0.00,0.00,VWS V14.01,2013-08-30 07:22:00,
2013-08-30 03:23:00,80.1,74.8,29.93,West,267,1.0,2.0,84,0.00,,FEW,0.00,0.00,VWS V14.01,2013-08-30 07:23:00,
2013-08-30 03:24:00,80.1,74.8,29.93,West,267,0.0,1.0,84,0.00,,FEW,0.00,0.00,VWS V14.01,2013-08-30 07:24:00,
2013-08-30 03:26:00,80.1,74.8,29.93,West,267,0.0,1.0,84,0.00,,FEW,0.00,0.00,VWS V14.01,2013-08-30 07:26:00,
2013-08-30 03:28:00,80.1,74.8,29.93,West,267,0.0,2.0,84,0.00,,FEW,0.00,0.00,VWS V14.01,2013-08-30 07:28:00,
2013-08-30 03:29:00,80.1,74.8,29.93,West,267,0.0,2.0,84,0.00,,FEW,0.00,0.00,VWS V14.01,2013-08-30 07:29:00,
2013-08-30 03:30:00,80.1,74.8,29.93,West,267,0.0,2.0,84,0.00,,FEW,0.00,0.00,VWS V14.01,2013-08-30 07:30:00,
2013-08-30 03:31:00,80.1,74.8,29.93,West,267,1.0,2.0,84,0.00,,FEW,0.00,0.00,VWS V14.01,2013-08-30 07:31:00,
2013-08-30 03:33:00,80.1,74.8,29.93,West,267,0.0,2.0,84,0.00,,FEW,0.00,0.00,VWS V14.01,2013-08-30 07:33:00,
2013-08-30 03:35:00,80.1,75.2,29.93,West,267,0.0,1.0,85,0.00,,FEW,0.00,0.00,VWS V14.01,2013-08-30 07:35:00,
2013-08-30 03:36:00,80.1,75.2,29.93,West,267,1.0,1.0,85,0.00,,FEW,0.00,0.00,VWS V14.01,2013-08-30 07:36:00,
2013-08-30 03:38:00,80.1,75.2,29.93,West,267,1.0,1.0,85,0.00,,FEW,0.00,0.00,VWS V14.01,2013-08-30 07:38:00,
2013-08-30 03:39:00,80.1,75.2,29.93,West,267,0.0,1.0,85,0.00,,FEW,0.00,0.00,VWS V14.01,2013-08-30 07:39:00,
2013-08-30 03:40:00,80.1,75.2,29.93,West,267,0.0,1.0,85,0.00,,FEW,0.00,0.00,VWS V14.01,2013-08-30 07:40:00,
2013-08-30 03:41:00,80.1,75.2,29.93,West,267,1.0,1.0,85,0.00,,FEW,0.00,0.00,VWS V14.01,2013-08-30 07:41:00,
2013-08-30 03:43:00,80.1,75.2,29.93,West,267,0.0,1.0,85,0.00,,FEW,0.00,0.00,VWS V14.01,2013-08-30 07:43:00,
2013-08-30 03:44:00,80.2,75.3,29.93,West,267,1.0,1.0,85,0.00,,FEW,0.00,0.00,VWS V14.01,2013-08-30 07:44:00,
2013-08-30 03:46:00,80.2,75.3,29.93,West,267,0.0,1.0,85,0.00,,FEW,0.00,0.00,VWS V14.01,2013-08-30 07:46:00,
2013-08-30 03:48:00,80.2,75.3,29.93,West,267,0.0,1.0,85,0.00,,FEW,0.00,0.00,VWS V14.01,2013-08-30 07:48:00,
2013-08-30 03:49:00,80.2,75.3,29.93,West,267,0.0,1.0,85,0.00,,FEW,0.00,0.00,VWS V14.01,2013-08-30 07:49:00,
2013-08-30 03:51:00,80.2,75.3,29.93,West,267,0.0,1.0,85,0.00,,FEW,0.00,0.00,VWS V14.01,2013-08-30 07:51:00,
2013-08-30 03:52:00,80.2,75.3,29.93,West,267,2.0,2.0,85,0.00,,FEW,0.00,0.00,VWS V14.01,2013-08-30 07:52:00,
2013-08-30 03:53:00,80.3,75.4,29.93,West,267,0.0,2.0,85,0.00,,FEW,0.00,0.00,VWS V14.01,2013-08-30 07:53:00,
2013-08-30 03:54:00,80.3,75.4,29.93,West,267,0.0,1.0,85,0.00,,FEW,0.00,0.00,VWS V14.01,2013-08-30 07:54:00,
2013-08-30 03:56:00,80.3,75.4,29.93,West,267,0.0,1.0,85,0.00,,FEW,0.00,0.00,VWS V14.01,2013-08-30 07:56:00,
2013-08-30 03:57:00,80.3,75.4,29.93,West,267,0.0,1.0,85,0.00,,FEW,0.00,0.00,VWS V14.01,2013-08-30 07:57:00,
2013-08-30 03:58:00,80.3,75.4,29.93,West,267,0.0,1.0,85,0.00,,FEW,0.00,0.00,VWS V14.01,2013-08-30 07:58:00,
2013-08-30 03:59:00,80.3,75.4,29.93,West,267,1.0,1.0,85,0.00,,FEW,0.00,0.00,VWS V14.01,2013-08-30 07:59:00,
2013-08-30 04:00:00,80.3,75.4,29.93,West,267,1.0,1.0,85,0.00,,FEW,0.00,0.00,VWS V14.01,2013-08-30 08:00:00,
2013-08-30 04:01:00,80.3,75.0,29.93,West,267,1.0,3.0,84,0.00,,FEW,0.00,0.00,VWS V14.01,2013-08-30 08:01:00,
2013-08-30 04:03:00,80.3,75.0,29.93,NW,312,2.0,3.0,84,0.00,,FEW,0.00,0.00,VWS V14.01,2013-08-30 08:03:00,
2013-08-30 04:04:00,80.3,75.0,29.93,NW,312,1.0,2.0,84,0.00,,FEW,0.00,0.00,VWS V14.01,2013-08-30 08:04:00,
2013-08-30 04:05:00,80.3,75.0,29.93,NW,312,1.0,2.0,84,0.00,,FEW,0.00,0.00,VWS V14.01,2013-08-30 08:05:00,
2013-08-30 04:06:00,80.4,75.1,29.93,NW,323,0.0,2.0,84,0.00,,FEW,0.00,0.00,VWS V14.01,2013-08-30 08:06:00,
2013-08-30 04:08:00,80.4,75.1,29.93,NW,323,0.0,2.0,84,0.00,,FEW,0.00,0.00,VWS V14.01,2013-08-30 08:08:00,
2013-08-30 04:09:00,80.4,75.1,29.93,NW,319,0.0,2.0,84,0.00,,FEW,0.00,0.00,VWS V14.01,2013-08-30 08:09:00,
2013-08-30 04:10:00,80.4,75.1,29.93,NW,319,0.0,2.0,84,0.00,,FEW,0.00,0.00,VWS V14.01,2013-08-30 08:10:00,
2013-08-30 04:11:00,80.5,75.2,29.93,NW,306,1.0,2.0,84,0.00,,FEW,0.00,0.00,VWS V14.01,2013-08-30 08:11:00,
2013-08-30 04:13:00,80.5,75.2,29.93,NW,324,0.0,0.0,84,0.00,,FEW,0.00,0.00,VWS V14.01,2013-08-30 08:13:00,
2013-08-30 04:14:00,80.5,75.2,29.93,NW,324,0.0,0.0,84,0.00,,FEW,0.00,0.00,VWS V14.01,2013-08-30 08:14:00,
2013-08-30 04:15:00,80.5,75.2,29.93,NW,324,0.0,0.0,84,0.00,,FEW,0.00,0.00,VWS V14.01,2013-08-30 08:15:00,
2013-08-30 04:16:00,80.5,75.2,29.93,NW,324,0.0,0.0,84,0.00,,FEW,0.00,0.00,VWS V14.01,2013-08-30 08:16:00,
2013-08-30 04:18:00,80.6,75.3,29.93,NW,324,0.0,0.0,84,0.00,,FEW,0.00,0.00,VWS V14.01,2013-08-30 08:18:00,
2013-08-30 04:19:00,80.6,75.3,29.93,NW,324,0.0,0.0,84,0.00,,FEW,0.00,0.00,VWS V14.01,2013-08-30 08:19:00,
2013-08-30 04:20:00,80.6,75.3,29.93,NW,324,0.0,0.0,84,0.00,,FEW,0.00,0.00,VWS V14.01,2013-08-30 08:20:00,
2013-08-30 04:21:00,80.6,75.3,29.93,NW,324,0.0,0.0,84,0.00,,FEW,0.00,0.00,VWS V14.01,2013-08-30 08:21:00,
2013-08-30 04:22:00,80.6,75.3,29.93,NW,324,0.0,0.0,84,0.00,,FEW,0.00,0.00,VWS V14.01,2013-08-30 08:22:00,
2013-08-30 04:23:00,80.6,75.3,29.93,NW,324,0.0,0.0,84,0.00,,FEW,0.00,0.00,VWS V14.01,2013-08-30 08:23:00,
2013-08-30 04:25:00,80.7,75.4,29.93,NW,324,0.0,0.0,84,0.00,,FEW,0.00,0.00,VWS V14.01,2013-08-30 08:25:00,
2013-08-30 04:26:00,80.6,75.3,29.93,NW,324,0.0,0.0,84,0.00,,FEW,0.00,0.00,VWS V14.01,2013-08-30 08:26:00,
2013-08-30 04:28:00,80.7,75.4,29.93,NW,324,0.0,0.0,84,0.00,,FEW,0.00,0.00,VWS V14.01,2013-08-30 08:28:00,
2013-08-30 04:30:00,80.7,75.4,29.93,NW,324,0.0,0.0,84,0.00,,FEW,0.00,0.00,VWS V14.01,2013-08-30 08:30:00,
2013-08-30 04:31:00,80.7,75.4,29.93,NW,324,0.0,0.0,84,0.00,,FEW,0.00,0.00,VWS V14.01,2013-08-30 08:31:00,
2013-08-30 04:33:00,80.7,75.4,29.94,NW,324,0.0,0.0,84,0.00,,FEW,0.00,0.00,VWS V14.01,2013-08-30 08:33:00,
2013-08-30 04:35:00,80.7,75.4,29.94,NW,324,0.0,0.0,84,0.00,,FEW,0.00,0.00,VWS V14.01,2013-08-30 08:35:00,
2013-08-30 04:36:00,80.7,75.4,29.94,NW,324,0.0,0.0,84,0.00,,FEW,0.00,0.00,VWS V14.01,2013-08-30 08:36:00,
2013-08-30 04:38:00,80.7,75.4,29.94,NW,324,0.0,0.0,84,0.00,,FEW,0.00,0.00,VWS V14.01,2013-08-30 08:38:00,
2013-08-30 04:40:00,80.7,75.4,29.94,NW,324,0.0,0.0,84,0.00,,FEW,0.00,0.00,VWS V14.01,2013-08-30 08:40:00,
2013-08-30 04:41:00,80.7,75.4,29.94,NW,324,0.0,0.0,84,0.00,,FEW,0.00,0.00,VWS V14.01,2013-08-30 08:41:00,
2013-08-30 04:43:00,80.7,75.4,29.94,NW,324,0.0,1.0,84,0.00,,FEW,0.00,0.00,VWS V14.01,2013-08-30 08:43:00,
2013-08-30 04:45:00,80.7,75.4,29.94,NW,324,0.0,1.0,84,0.00,,FEW,0.00,0.00,VWS V14.01,2013-08-30 08:45:00,
2013-08-30 04:46:00,80.7,75.4,29.94,NW,324,0.0,1.0,84,0.00,,FEW,0.00,0.00,VWS V14.01,2013-08-30 08:46:00,
2013-08-30 04:47:00,80.7,75.4,29.94,NW,324,0.0,1.0,84,0.00,,FEW,0.00,0.00,VWS V14.01,2013-08-30 08:47:00,
2013-08-30 04:48:00,80.7,75.4,29.94,NW,324,0.0,1.0,84,0.00,,FEW,0.00,0.00,VWS V14.01,2013-08-30 08:48:00,
2013-08-30 04:49:00,80.7,75.4,29.94,NW,324,0.0,1.0,84,0.00,,FEW,0.00,0.00,VWS V14.01,2013-08-30 08:49:00,
2013-08-30 04:50:00,80.7,75.4,29.94,NW,324,0.0,1.0,84,0.00,,FEW,0.00,0.00,VWS V14.01,2013-08-30 08:50:00,
2013-08-30 04:51:00,80.7,75.4,29.94,NW,324,0.0,1.0,84,0.00,,FEW,0.00,0.00,VWS V14.01,2013-08-30 08:51:00,
2013-08-30 04:52:00,80.7,75.4,29.94,NW,324,0.0,1.0,84,0.00,,FEW,0.00,0.00,VWS V14.01,2013-08-30 08:52:00,
2013-08-30 04:53:00,80.7,75.4,29.94,NW,324,0.0,0.0,84,0.00,,FEW,0.00,0.00,VWS V14.01,2013-08-30 08:53:00,
2013-08-30 04:54:00,80.7,75.4,29.94,NW,324,0.0,0.0,84,0.00,,FEW,0.00,0.00,VWS V14.01,2013-08-30 08:54:00,
2013-08-30 04:56:00,80.8,75.5,29.94,NW,324,0.0,1.0,84,0.00,,FEW,0.00,0.00,VWS V14.01,2013-08-30 08:56:00,
2013-08-30 04:57:00,80.8,75.5,29.94,NW,324,1.0,1.0,84,0.00,,FEW,0.00,0.00,VWS V14.01,2013-08-30 08:57:00,
2013-08-30 04:59:00,80.8,75.5,29.94,NW,306,0.0,2.0,84,0.00,,FEW,0.00,0.00,VWS V14.01,2013-08-30 08:59:00,
2013-08-30 05:01:00,80.8,75.5,29.94,NW,306,0.0,2.0,84,0.00,,FEW,0.00,0.00,VWS V14.01,2013-08-30 09:01:00,
2013-08-30 05:02:00,80.8,75.5,29.94,NW,307,2.0,2.0,84,0.00,,FEW,0.00,0.00,VWS V14.01,2013-08-30 09:02:00,
2013-08-30 05:03:00,80.9,75.6,29.93,NW,306,0.0,2.0,84,0.00,,FEW,0.00,0.00,VWS V14.01,2013-08-30 09:03:00,
2013-08-30 05:04:00,80.9,75.6,29.93,NW,306,1.0,2.0,84,0.00,,FEW,0.00,0.00,VWS V14.01,2013-08-30 09:04:00,
2013-08-30 05:05:00,80.9,75.6,29.93,NW,307,0.0,2.0,84,0.00,,FEW,0.00,0.00,VWS V14.01,2013-08-30 09:05:00,
2013-08-30 05:06:00,80.9,75.6,29.93,NW,307,0.0,2.0,84,0.00,,FEW,0.00,0.00,VWS V14.01,2013-08-30 09:06:00,
2013-08-30 05:07:00,80.9,75.6,29.93,NW,306,0.0,2.0,84,0.00,,FEW,0.00,0.00,VWS V14.01,2013-08-30 09:07:00,
2013-08-30 05:09:00,80.9,75.6,29.93,NW,306,1.0,2.0,84,0.00,,FEW,0.00,0.00,VWS V14.01,2013-08-30 09:09:00,
2013-08-30 05:11:00,80.9,75.6,29.93,NW,307,1.0,2.0,84,0.00,,FEW,0.00,0.00,VWS V14.01,2013-08-30 09:11:00,
2013-08-30 05:12:00,80.9,75.6,29.93,NW,307,0.0,2.0,84,0.00,,FEW,0.00,0.00,VWS V14.01,2013-08-30 09:12:00,
2013-08-30 05:14:00,80.9,75.6,29.93,NW,307,1.0,2.0,84,0.00,,FEW,0.00,0.00,VWS V14.01,2013-08-30 09:14:00,
2013-08-30 05:16:00,81.0,75.7,29.93,NW,307,0.0,2.0,84,0.00,,FEW,0.00,0.00,VWS V14.01,2013-08-30 09:16:00,
2013-08-30 05:17:00,81.0,75.7,29.93,NW,306,0.0,2.0,84,0.00,,FEW,0.00,0.00,VWS V14.01,2013-08-30 09:17:00,
2013-08-30 05:19:00,81.0,75.7,29.93,NW,307,1.0,2.0,84,0.00,,FEW,0.00,0.00,VWS V14.01,2013-08-30 09:19:00,
2013-08-30 05:21:00,81.0,75.7,29.93,NW,307,0.0,2.0,84,0.00,,FEW,0.00,0.00,VWS V14.01,2013-08-30 09:21:00,
2013-08-30 05:22:00,81.0,75.7,29.93,NW,307,0.0,2.0,84,0.00,,FEW,0.00,0.00,VWS V14.01,2013-08-30 09:22:00,
2013-08-30 05:24:00,81.0,75.7,29.93,NW,307,1.0,2.0,84,0.00,,FEW,0.00,0.00,VWS V14.01,2013-08-30 09:24:00,
2013-08-30 05:26:00,81.0,75.7,29.93,NW,306,0.0,2.0,84,0.00,,FEW,0.00,0.00,VWS V14.01,2013-08-30 09:26:00,
2013-08-30 05:27:00,81.0,75.7,29.93,NW,307,1.0,2.0,84,0.00,,FEW,0.00,0.00,VWS V14.01,2013-08-30 09:27:00,
2013-08-30 05:28:00,81.0,75.7,29.93,NW,307,2.0,2.0,84,0.00,,FEW,0.00,0.00,VWS V14.01,2013-08-30 09:28:00,
2013-08-30 05:29:00,81.0,75.7,29.93,NW,306,2.0,2.0,84,0.00,,FEW,0.00,0.00,VWS V14.01,2013-08-30 09:29:00,
2013-08-30 05:31:00,81.0,75.7,29.93,NW,307,0.0,2.0,84,0.00,,FEW,0.00,0.00,VWS V14.01,2013-08-30 09:31:00,
2013-08-30 05:32:00,81.0,75.7,29.93,NW,307,1.0,2.0,84,0.00,,FEW,0.00,0.00,VWS V14.01,2013-08-30 09:32:00,
2013-08-30 05:33:00,81.0,75.7,29.93,NW,307,0.0,0.0,84,0.00,,FEW,0.00,0.00,VWS V14.01,2013-08-30 09:33:00,
2013-08-30 05:34:00,81.0,75.7,29.93,NW,307,0.0,0.0,84,0.00,,FEW,0.00,0.00,VWS V14.01,2013-08-30 09:34:00,
2013-08-30 05:36:00,81.0,76.1,29.93,NW,306,0.0,1.0,85,0.00,,FEW,0.00,0.00,VWS V14.01,2013-08-30 09:36:00,
2013-08-30 05:37:00,81.0,76.1,29.93,NW,307,0.0,1.0,85,0.00,,FEW,0.00,0.00,VWS V14.01,2013-08-30 09:37:00,
2013-08-30 05:38:00,81.0,76.1,29.93,NW,307,1.0,1.0,85,0.00,,FEW,0.00,0.00,VWS V14.01,2013-08-30 09:38:00,
2013-08-30 05:39:00,81.1,76.2,29.93,NW,307,0.0,1.0,85,0.00,,FEW,0.00,0.00,VWS V14.01,2013-08-30 09:39:00,
2013-08-30 05:42:00,81.1,76.2,29.93,NW,307,0.0,2.0,85,0.00,,FEW,0.00,0.00,VWS V14.01,2013-08-30 09:42:00,
2013-08-30 05:43:00,81.1,76.2,29.93,NW,307,0.0,0.0,85,0.00,,FEW,0.00,0.00,VWS V14.01,2013-08-30 09:43:00,
2013-08-30 05:44:00,81.0,76.1,29.93,NW,307,0.0,0.0,85,0.00,,FEW,0.00,0.00,VWS V14.01,2013-08-30 09:44:00,
2013-08-30 05:45:00,81.0,76.1,29.93,NW,306,0.0,0.0,85,0.00,,FEW,0.00,0.00,VWS V14.01,2013-08-30 09:45:00,
2013-08-30 05:47:00,81.1,76.2,29.93,NW,306,0.0,0.0,85,0.00,,FEW,0.00,0.00,VWS V14.01,2013-08-30 09:47:00,
2013-08-30 05:48:00,81.1,76.2,29.93,NW,306,0.0,1.0,85,0.00,,FEW,0.00,0.00,VWS V14.01,2013-08-30 09:48:00,
2013-08-30 05:49:00,81.1,76.2,29.93,NW,307,0.0,1.0,85,0.00,,FEW,0.00,0.00,VWS V14.01,2013-08-30 09:49:00,
2013-08-30 05:50:00,81.1,76.2,29.93,NW,307,0.0,1.0,85,0.00,,FEW,0.00,0.00,VWS V14.01,2013-08-30 09:50:00,
2013-08-30 05:52:00,81.1,76.2,29.93,NW,307,0.0,1.0,85,0.00,,FEW,0.00,0.00,VWS V14.01,2013-08-30 09:52:00,
2013-08-30 05:53:00,81.1,76.2,29.93,NW,307,0.0,1.0,85,0.00,,FEW,0.00,0.00,VWS V14.01,2013-08-30 09:53:00,
2013-08-30 05:54:00,81.0,76.1,29.93,NW,306,0.0,0.0,85,0.00,,FEW,0.00,0.00,VWS V14.01,2013-08-30 09:54:00,
2013-08-30 05:55:00,81.1,76.2,29.93,NW,307,0.0,0.0,85,0.00,,FEW,0.00,0.00,VWS V14.01,2013-08-30 09:55:00,
2013-08-30 05:57:00,81.0,76.1,29.93,NW,307,0.0,0.0,85,0.00,,FEW,0.00,0.00,VWS V14.01,2013-08-30 09:57:00,
2013-08-30 05:58:00,81.1,76.2,29.93,NW,307,0.0,0.0,85,0.00,,FEW,0.00,0.00,VWS V14.01,2013-08-30 09:58:00,
2013-08-30 05:59:00,81.0,76.1,29.93,NW,307,1.0,1.0,85,0.00,,FEW,0.00,0.00,VWS V14.01,2013-08-30 09:59:00,
2013-08-30 06:00:00,81.1,76.2,29.93,NW,307,0.0,1.0,85,0.00,,FEW,0.00,0.00,VWS V14.01,2013-08-30 10:00:00,
2013-08-30 06:02:00,81.0,76.1,29.93,NW,307,1.0,1.0,85,0.00,,FEW,0.00,0.00,VWS V14.01,2013-08-30 10:02:00,
2013-08-30 06:03:00,81.0,76.1,29.92,NW,307,0.0,1.0,85,0.00,,FEW,0.00,0.00,VWS V14.01,2013-08-30 10:03:00,
2013-08-30 06:04:00,81.0,76.1,29.92,NW,307,0.0,0.0,85,0.00,,FEW,0.00,0.00,VWS V14.01,2013-08-30 10:04:00,
2013-08-30 06:05:00,81.0,76.1,29.92,NW,307,1.0,1.0,85,0.00,,FEW,0.00,0.00,VWS V14.01,2013-08-30 10:05:00,
2013-08-30 06:06:00,81.0,76.1,29.92,NW,306,0.0,1.0,85,0.00,,FEW,0.00,0.00,VWS V14.01,2013-08-30 10:06:00,
2013-08-30 06:07:00,81.0,76.1,29.92,NW,306,0.0,1.0,85,0.00,,FEW,0.00,0.00,VWS V14.01,2013-08-30 10:07:00,
2013-08-30 06:08:00,81.0,76.1,29.92,NW,307,0.0,1.0,85,0.00,,FEW,0.00,0.00,VWS V14.01,2013-08-30 10:08:00,
2013-08-30 06:10:00,81.0,76.1,29.92,NW,307,0.0,1.0,85,0.00,,FEW,0.00,0.00,VWS V14.01,2013-08-30 10:10:00,
2013-08-30 06:11:00,81.0,76.1,29.92,NW,307,0.0,1.0,85,0.00,,FEW,0.00,0.00,VWS V14.01,2013-08-30 10:11:00,
2013-08-30 06:12:00,80.9,76.0,29.92,NW,307,1.0,1.0,85,0.00,,FEW,0.00,0.00,VWS V14.01,2013-08-30 10:12:00,
2013-08-30 06:13:00,80.9,76.0,29.92,NW,307,1.0,2.0,85,0.00,,FEW,0.00,0.00,VWS V14.01,2013-08-30 10:13:00,
2013-08-30 06:15:00,80.9,75.6,29.92,NW,319,1.0,2.0,84,0.00,,FEW,0.00,0.00,VWS V14.01,2013-08-30 10:15:00,
2013-08-30 06:16:00,80.9,75.6,29.92,NNW,331,2.0,3.0,84,0.00,,FEW,0.00,0.00,VWS V14.01,2013-08-30 10:16:00,
2013-08-30 06:17:00,80.9,75.6,29.91,NNW,337,2.0,3.0,84,0.00,,FEW,0.00,0.00,VWS V14.01,2013-08-30 10:17:00,
2013-08-30 06:18:00,80.9,75.6,29.91,NNW,337,0.0,3.0,84,0.00,,FEW,0.00,0.00,VWS V14.01,2013-08-30 10:18:00,
2013-08-30 06:20:00,80.9,75.6,29.91,NNW,345,1.0,3.0,84,0.00,,FEW,0.00,0.00,VWS V14.01,2013-08-30 10:20:00,
2013-08-30 06:21:00,80.9,75.6,29.91,North,355,2.0,3.0,84,0.00,,FEW,0.00,0.00,VWS V14.01,2013-08-30 10:21:00,
2013-08-30 06:22:00,80.8,75.5,29.91,NNW,338,1.0,3.0,84,0.00,,FEW,0.00,0.00,VWS V14.01,2013-08-30 10:22:00,
2013-08-30 06:23:00,80.8,75.5,29.91,NNW,338,1.0,1.0,84,0.00,,FEW,0.00,0.00,VWS V14.01,2013-08-30 10:23:00,
2013-08-30 06:25:00,80.8,75.5,29.91,North,355,3.0,3.0,84,0.00,,FEW,0.00,0.00,VWS V14.01,2013-08-30 10:25:00,
2013-08-30 06:27:00,80.9,75.6,29.91,NNW,338,3.0,3.0,84,0.00,,FEW,0.00,0.00,VWS V14.01,2013-08-30 10:27:00,
2013-08-30 06:28:00,80.9,75.6,29.91,NNW,338,2.0,3.0,84,0.00,,FEW,0.00,0.00,VWS V14.01,2013-08-30 10:28:00,
2013-08-30 06:30:00,80.9,75.3,29.91,NNW,329,2.0,3.0,83,0.00,,FEW,0.00,0.00,VWS V14.01,2013-08-30 10:30:00,
2013-08-30 06:32:00,80.9,75.3,29.92,NNW,329,0.0,3.0,83,0.00,,FEW,0.00,0.00,VWS V14.01,2013-08-30 10:32:00,
2013-08-30 06:33:00,80.9,75.3,29.92,NNW,329,2.0,3.0,83,0.00,,FEW,0.00,0.00,VWS V14.01,2013-08-30 10:33:00,
2013-08-30 06:35:00,80.9,75.3,29.92,NNW,346,0.0,3.0,83,0.00,,FEW,0.00,0.00,VWS V14.01,2013-08-30 10:35:00,
2013-08-30 06:37:00,81.0,75.3,29.92,North,355,3.0,3.0,83,0.00,,FEW,0.00,0.00,VWS V14.01,2013-08-30 10:37:00,
2013-08-30 06:38:00,81.0,75.3,29.92,North,355,0.0,3.0,83,0.00,,FEW,0.00,0.00,VWS V14.01,2013-08-30 10:38:00,
2013-08-30 06:40:00,81.0,75.3,29.92,North,355,1.0,3.0,83,0.00,,FEW,0.00,0.00,VWS V14.01,2013-08-30 10:40:00,
2013-08-30 06:42:00,81.0,75.3,29.92,North,355,0.0,3.0,83,0.00,,FEW,0.00,0.00,VWS V14.01,2013-08-30 10:42:00,
2013-08-30 06:43:00,81.0,75.3,29.92,North,355,0.0,3.0,83,0.00,,FEW,0.00,0.00,VWS V14.01,2013-08-30 10:43:00,
2013-08-30 06:45:00,81.0,75.3,29.92,North,355,1.0,2.0,83,0.00,,FEW,0.00,0.00,VWS V14.01,2013-08-30 10:45:00,
2013-08-30 06:46:00,81.0,75.3,29.92,North,355,0.0,2.0,83,0.00,,FEW,0.00,0.00,VWS V14.01,2013-08-30 10:46:00,
2013-08-30 06:48:00,81.0,75.3,29.93,North,355,0.0,2.0,83,0.00,,FEW,0.00,0.00,VWS V14.01,2013-08-30 10:48:00,
2013-08-30 06:49:00,81.0,75.3,29.93,North,355,0.0,2.0,83,0.00,,FEW,0.00,0.00,VWS V14.01,2013-08-30 10:49:00,
2013-08-30 06:50:00,81.0,75.3,29.93,North,355,0.0,2.0,83,0.00,,FEW,0.00,0.00,VWS V14.01,2013-08-30 10:50:00,
2013-08-30 06:51:00,81.0,75.3,29.93,North,355,0.0,2.0,83,0.00,,FEW,0.00,0.00,VWS V14.01,2013-08-30 10:51:00,
2013-08-30 06:52:00,81.0,75.3,29.93,North,355,0.0,2.0,83,0.00,,FEW,0.00,0.00,VWS V14.01,2013-08-30 10:52:00,
2013-08-30 06:53:00,81.0,75.3,29.93,North,355,0.0,0.0,83,0.00,,FEW,0.00,0.00,VWS V14.01,2013-08-30 10:53:00,
2013-08-30 06:54:00,81.0,75.3,29.93,North,355,0.0,0.0,83,0.00,,FEW,0.00,0.00,VWS V14.01,2013-08-30 10:54:00,
2013-08-30 06:55:00,81.0,75.3,29.93,North,355,0.0,0.0,83,0.00,,FEW,0.00,0.00,VWS V14.01,2013-08-30 10:55:00,
2013-08-30 06:57:00,81.0,75.3,29.93,North,355,0.0,0.0,83,0.00,,FEW,0.00,0.00,VWS V14.01,2013-08-30 10:57:00,
2013-08-30 06:58:00,81.0,75.3,29.93,North,355,0.0,0.0,83,0.00,,FEW,0.00,0.00,VWS V14.01,2013-08-30 10:58:00,
2013-08-30 06:59:00,81.0,75.3,29.93,North,355,0.0,0.0,83,0.00,,FEW,0.00,0.00,VWS V14.01,2013-08-30 10:59:00,
2013-08-30 07:00:00,81.0,75.3,29.93,North,355,0.0,0.0,83,0.00,,FEW,0.00,0.00,VWS V14.01,2013-08-30 11:00:00,
2013-08-30 07:02:00,81.0,75.3,29.95,North,355,0.0,0.0,83,0.00,,FEW,0.00,0.00,VWS V14.01,2013-08-30 11:02:00,
2013-08-30 07:03:00,81.0,75.3,29.95,North,355,0.0,0.0,83,0.00,,FEW,0.00,0.00,VWS V14.01,2013-08-30 11:03:00,
2013-08-30 07:05:00,81.0,75.3,29.95,North,355,0.0,0.0,83,0.00,,FEW,0.00,0.00,VWS V14.01,2013-08-30 11:05:00,
2013-08-30 07:07:00,81.0,75.3,29.95,North,355,0.0,0.0,83,0.00,,FEW,0.00,0.00,VWS V14.01,2013-08-30 11:07:00,
2013-08-30 07:08:00,81.0,75.3,29.95,North,355,0.0,0.0,83,0.00,,FEW,0.00,0.00,VWS V14.01,2013-08-30 11:08:00,
2013-08-30 07:10:00,81.0,75.3,29.95,North,355,0.0,0.0,83,0.00,,FEW,0.00,0.00,VWS V14.01,2013-08-30 11:10:00,
2013-08-30 07:13:00,81.0,75.3,29.95,North,355,0.0,0.0,83,0.00,,FEW,0.00,0.00,VWS V14.01,2013-08-30 11:13:00,
2013-08-30 07:15:00,80.9,75.3,29.95,North,355,0.0,0.0,83,0.00,,FEW,0.00,5.00,VWS V14.01,2013-08-30 11:15:00,
2013-08-30 07:16:00,80.9,75.3,29.95,North,355,0.0,0.0,83,0.00,,FEW,0.00,5.00,VWS V14.01,2013-08-30 11:16:00,
2013-08-30 07:18:00,80.9,75.3,29.96,North,355,0.0,0.0,83,0.00,,FEW,0.00,7.00,VWS V14.01,2013-08-30 11:18:00,
2013-08-30 07:20:00,80.9,75.6,29.96,North,355,0.0,0.0,84,0.00,,FEW,0.00,7.00,VWS V14.01,2013-08-30 11:20:00,
2013-08-30 07:21:00,81.0,75.7,29.96,North,355,1.0,1.0,84,0.00,,FEW,0.00,7.00,VWS V14.01,2013-08-30 11:21:00,
2013-08-30 07:23:00,81.0,75.7,29.96,North,355,0.0,1.0,84,0.00,,FEW,0.00,7.00,VWS V14.01,2013-08-30 11:23:00,
2013-08-30 07:25:00,81.0,75.7,29.96,North,355,0.0,1.0,84,0.00,,FEW,0.00,9.00,VWS V14.01,2013-08-30 11:25:00,
2013-08-30 07:26:00,81.0,75.7,29.96,North,355,0.0,1.0,84,0.00,,FEW,0.00,11.00,VWS V14.01,2013-08-30 11:26:00,
2013-08-30 07:28:00,81.0,75.7,29.96,North,360,0.0,1.0,84,0.00,,FEW,0.00,11.00,VWS V14.01,2013-08-30 11:28:00,
2013-08-30 07:29:00,81.0,75.7,29.96,North,360,0.0,1.0,84,0.00,,FEW,0.00,12.00,VWS V14.01,2013-08-30 11:29:00,
2013-08-30 07:31:00,81.0,75.7,29.96,North,360,0.0,1.0,84,0.00,,FEW,0.00,12.00,VWS V14.01,2013-08-30 11:31:00,
2013-08-30 07:33:00,81.0,75.7,29.97,North,360,0.0,1.0,84,0.00,,FEW,0.00,14.00,VWS V14.01,2013-08-30 11:33:00,
2013-08-30 07:34:00,81.0,75.7,29.97,North,360,0.0,1.0,84,0.00,,FEW,0.00,14.00,VWS V14.01,2013-08-30 11:34:00,
2013-08-30 07:36:00,81.0,75.7,29.97,North,360,0.0,1.0,84,0.00,,FEW,0.00,16.00,VWS V14.01,2013-08-30 11:36:00,
2013-08-30 07:38:00,81.0,75.7,29.97,North,360,0.0,1.0,84,0.00,,FEW,0.00,16.00,VWS V14.01,2013-08-30 11:38:00,
2013-08-30 07:39:00,81.0,75.7,29.97,North,360,0.0,1.0,84,0.00,,FEW,0.00,16.00,VWS V14.01,2013-08-30 11:39:00,
2013-08-30 07:41:00,81.0,75.7,29.97,North,360,0.0,1.0,84,0.00,,FEW,0.00,16.00,VWS V14.01,2013-08-30 11:41:00,
2013-08-30 07:42:00,81.0,75.7,29.97,North,360,0.0,1.0,84,0.00,,FEW,0.00,18.00,VWS V14.01,2013-08-30 11:42:00,
2013-08-30 07:43:00,81.0,75.7,29.97,North,360,0.0,1.0,84,0.00,,FEW,0.00,18.00,VWS V14.01,2013-08-30 11:43:00,
2013-08-30 07:44:00,81.0,75.7,29.97,North,360,0.0,0.0,84,0.00,,FEW,0.00,18.00,VWS V14.01,2013-08-30 11:44:00,
2013-08-30 07:46:00,81.0,75.7,29.97,North,360,0.0,0.0,84,0.00,,FEW,0.00,18.00,VWS V14.01,2013-08-30 11:46:00,
2013-08-30 07:47:00,81.0,75.7,29.97,North,360,0.0,0.0,84,0.00,,FEW,0.00,18.00,VWS V14.01,2013-08-30 11:47:00,
2013-08-30 07:48:00,81.0,75.7,29.97,North,360,0.0,0.0,84,0.00,,FEW,0.00,19.00,VWS V14.01,2013-08-30 11:48:00,
2013-08-30 07:49:00,81.0,76.1,29.97,North,360,0.0,0.0,85,0.00,,FEW,0.00,19.00,VWS V14.01,2013-08-30 11:49:00,
2013-08-30 07:50:00,81.0,76.1,29.97,North,360,0.0,0.0,85,0.00,,FEW,0.00,19.00,VWS V14.01,2013-08-30 11:50:00,
2013-08-30 07:51:00,81.0,76.1,29.97,North,360,0.0,0.0,85,0.00,,FEW,0.00,19.00,VWS V14.01,2013-08-30 11:51:00,
2013-08-30 07:52:00,81.0,76.1,29.97,North,360,0.0,0.0,85,0.00,,FEW,0.00,19.00,VWS V14.01,2013-08-30 11:52:00,
2013-08-30 07:53:00,81.0,76.1,29.97,North,360,0.0,0.0,85,0.00,,FEW,0.00,19.00,VWS V14.01,2013-08-30 11:53:00,
2013-08-30 07:54:00,81.0,76.1,29.97,North,360,0.0,0.0,85,0.00,,FEW,0.00,19.00,VWS V14.01,2013-08-30 11:54:00,
2013-08-30 07:55:00,81.0,76.1,29.97,North,360,0.0,0.0,85,0.00,,FEW,0.00,19.00,VWS V14.01,2013-08-30 11:55:00,
2013-08-30 07:56:00,81.1,76.2,29.97,North,360,0.0,0.0,85,0.00,,FEW,0.00,19.00,VWS V14.01,2013-08-30 11:56:00,
2013-08-30 07:57:00,81.1,76.2,29.97,North,360,0.0,0.0,85,0.00,,FEW,0.00,21.00,VWS V14.01,2013-08-30 11:57:00,
2013-08-30 07:58:00,81.1,76.2,29.97,North,360,0.0,0.0,85,0.00,,FEW,0.00,21.00,VWS V14.01,2013-08-30 11:58:00,
2013-08-30 07:59:00,81.1,76.2,29.97,North,360,0.0,0.0,85,0.00,,FEW,0.00,21.00,VWS V14.01,2013-08-30 11:59:00,
2013-08-30 08:00:00,81.1,76.2,29.97,North,360,0.0,0.0,85,0.00,,FEW,0.00,21.00,VWS V14.01,2013-08-30 12:00:00,
2013-08-30 08:01:00,81.1,76.2,29.97,North,360,0.0,0.0,85,0.00,,FEW,0.00,21.00,VWS V14.01,2013-08-30 12:01:00,
2013-08-30 08:02:00,81.1,76.2,29.98,North,360,0.0,0.0,85,0.00,,FEW,0.00,19.00,VWS V14.01,2013-08-30 12:02:00,
2013-08-30 08:03:00,81.1,76.2,29.98,North,360,0.0,0.0,85,0.00,,FEW,0.00,19.00,VWS V14.01,2013-08-30 12:03:00,
2013-08-30 08:04:00,81.1,76.2,29.98,North,360,0.0,0.0,85,0.00,,FEW,0.00,19.00,VWS V14.01,2013-08-30 12:04:00,
2013-08-30 08:05:00,81.1,76.2,29.98,North,360,0.0,0.0,85,0.00,,FEW,0.00,19.00,VWS V14.01,2013-08-30 12:05:00,
2013-08-30 08:06:00,81.1,76.2,29.98,North,360,0.0,0.0,85,0.00,,FEW,0.00,19.00,VWS V14.01,2013-08-30 12:06:00,
2013-08-30 08:08:00,81.1,76.2,29.98,North,360,0.0,0.0,85,0.00,,FEW,0.00,19.00,VWS V14.01,2013-08-30 12:08:00,
2013-08-30 08:10:00,81.1,76.2,29.98,North,360,0.0,0.0,85,0.00,,FEW,0.00,21.00,VWS V14.01,2013-08-30 12:10:00,
2013-08-30 08:11:00,81.2,76.3,29.98,North,360,0.0,0.0,85,0.00,,FEW,0.00,23.00,VWS V14.01,2013-08-30 12:11:00,
2013-08-30 08:13:00,81.2,76.3,29.98,North,360,0.0,0.0,85,0.00,,FEW,0.00,28.00,VWS V14.01,2013-08-30 12:13:00,
2013-08-30 08:14:00,81.2,75.9,29.98,North,360,0.0,0.0,84,0.00,,FEW,0.00,30.00,VWS V14.01,2013-08-30 12:14:00,
2013-08-30 08:15:00,81.2,75.9,29.98,North,360,0.0,0.0,84,0.00,,FEW,0.00,32.00,VWS V14.01,2013-08-30 12:15:00,
2013-08-30 08:16:00,81.2,76.3,29.98,North,360,1.0,1.0,85,0.00,,FEW,0.00,35.00,VWS V14.01,2013-08-30 12:16:00,
2013-08-30 08:17:00,81.2,76.3,29.97,North,360,1.0,1.0,85,0.00,,FEW,0.00,39.00,VWS V14.01,2013-08-30 12:17:00,
2013-08-30 08:18:00,81.2,76.3,29.97,North,360,2.0,2.0,85,0.00,,FEW,0.00,39.00,VWS V14.01,2013-08-30 12:18:00,
2013-08-30 08:19:00,81.2,76.3,29.97,North,360,1.0,2.0,85,0.00,,FEW,0.00,42.00,VWS V14.01,2013-08-30 12:19:00,
2013-08-30 08:20:00,81.3,76.4,29.97,North,360,1.0,2.0,85,0.00,,FEW,0.00,44.00,VWS V14.01,2013-08-30 12:20:00,
2013-08-30 08:21:00,81.3,76.4,29.97,North,360,0.0,2.0,85,0.00,,FEW,0.00,47.00,VWS V14.01,2013-08-30 12:21:00,
2013-08-30 08:23:00,81.4,76.5,29.97,North,360,0.0,2.0,85,0.00,,FEW,0.00,47.00,VWS V14.01,2013-08-30 12:23:00,
2013-08-30 08:24:00,81.4,76.5,29.97,North,360,0.0,0.0,85,0.00,,FEW,0.00,49.00,VWS V14.01,2013-08-30 12:24:00,
2013-08-30 08:25:00,81.4,76.5,29.97,North,360,0.0,0.0,85,0.00,,FEW,0.00,49.00,VWS V14.01,2013-08-30 12:25:00,
2013-08-30 08:26:00,81.5,76.6,29.97,North,360,0.0,0.0,85,0.00,,FEW,0.00,54.00,VWS V14.01,2013-08-30 12:26:00,
2013-08-30 08:27:00,81.5,76.6,29.97,North,360,0.0,0.0,85,0.00,,FEW,0.00,54.00,VWS V14.01,2013-08-30 12:27:00,
2013-08-30 08:28:00,81.5,76.6,29.97,North,360,0.0,0.0,85,0.00,,FEW,0.00,62.00,VWS V14.01,2013-08-30 12:28:00,
2013-08-30 08:29:00,81.6,76.7,29.97,North,360,0.0,0.0,85,0.00,,FEW,0.00,65.00,VWS V14.01,2013-08-30 12:29:00,
2013-08-30 08:30:00,81.6,76.7,29.97,North,360,0.0,0.0,85,0.00,,FEW,0.00,69.00,VWS V14.01,2013-08-30 12:30:00,
2013-08-30 08:31:00,81.6,76.7,29.97,North,360,0.0,0.0,85,0.00,,FEW,0.00,70.00,VWS V14.01,2013-08-30 12:31:00,
2013-08-30 08:32:00,81.6,76.7,29.97,North,360,0.0,0.0,85,0.00,,FEW,0.00,70.00,VWS V14.01,2013-08-30 12:32:00,
2013-08-30 08:33:00,81.6,76.7,29.98,North,360,0.0,0.0,85,0.00,,FEW,0.00,70.00,VWS V14.01,2013-08-30 12:33:00,
2013-08-30 08:34:00,81.6,76.7,29.98,North,360,0.0,0.0,85,0.00,,FEW,0.00,72.00,VWS V14.01,2013-08-30 12:34:00,
2013-08-30 08:35:00,81.6,76.7,29.98,North,360,0.0,0.0,85,0.00,,FEW,0.00,72.00,VWS V14.01,2013-08-30 12:35:00,
2013-08-30 08:36:00,81.7,76.8,29.98,North,360,0.0,0.0,85,0.00,,FEW,0.00,72.00,VWS V14.01,2013-08-30 12:36:00,
2013-08-30 08:37:00,81.7,76.8,29.98,North,360,0.0,0.0,85,0.00,,FEW,0.00,72.00,VWS V14.01,2013-08-30 12:37:00,
2013-08-30 08:38:00,81.7,76.8,29.98,North,360,0.0,0.0,85,0.00,,FEW,0.00,72.00,VWS V14.01,2013-08-30 12:38:00,
2013-08-30 08:40:00,81.8,76.8,29.98,North,360,0.0,0.0,85,0.00,,FEW,0.00,74.00,VWS V14.01,2013-08-30 12:40:00,
2013-08-30 08:41:00,81.8,76.8,29.98,North,360,0.0,0.0,85,0.00,,FEW,0.00,74.00,VWS V14.01,2013-08-30 12:41:00,
2013-08-30 08:42:00,81.8,76.8,29.98,North,360,0.0,0.0,85,0.00,,FEW,0.00,74.00,VWS V14.01,2013-08-30 12:42:00,
2013-08-30 08:44:00,81.9,77.3,29.98,North,360,0.0,0.0,86,0.00,,FEW,0.00,74.00,VWS V14.01,2013-08-30 12:44:00,
2013-08-30 08:45:00,81.9,77.3,29.98,North,360,0.0,0.0,86,0.00,,FEW,0.00,74.00,VWS V14.01,2013-08-30 12:45:00,
2013-08-30 08:46:00,82.0,77.4,29.98,North,360,0.0,0.0,86,0.00,,FEW,0.00,74.00,VWS V14.01,2013-08-30 12:46:00,
2013-08-30 08:48:00,82.0,77.4,29.98,North,360,0.0,0.0,86,0.00,,FEW,0.00,76.00,VWS V14.01,2013-08-30 12:48:00,
2013-08-30 08:50:00,82.0,77.4,29.98,North,360,0.0,0.0,86,0.00,,FEW,0.00,79.00,VWS V14.01,2013-08-30 12:50:00,
2013-08-30 08:51:00,82.1,77.5,29.98,North,360,0.0,0.0,86,0.00,,FEW,0.00,83.00,VWS V14.01,2013-08-30 12:51:00,
2013-08-30 08:53:00,82.1,77.5,29.98,North,360,0.0,0.0,86,0.00,,FEW,0.00,86.00,VWS V14.01,2013-08-30 12:53:00,
2013-08-30 08:55:00,82.1,77.2,29.98,North,360,0.0,0.0,85,0.00,,FEW,0.00,90.00,VWS V14.01,2013-08-30 12:55:00,
2013-08-30 08:56:00,82.1,77.2,29.98,North,360,0.0,0.0,85,0.00,,FEW,0.00,90.00,VWS V14.01,2013-08-30 12:56:00,
2013-08-30 08:58:00,82.1,77.2,29.98,North,360,0.0,0.0,85,0.00,,FEW,0.00,93.00,VWS V14.01,2013-08-30 12:58:00,
2013-08-30 09:00:00,82.1,77.2,29.98,North,360,0.0,0.0,85,0.00,,FEW,0.00,97.00,VWS V14.01,2013-08-30 13:00:00,
2013-08-30 09:01:00,82.1,77.2,29.98,North,360,0.0,0.0,85,0.00,,FEW,0.00,97.00,VWS V14.01,2013-08-30 13:01:00,
2013-08-30 09:02:00,82.1,77.2,29.98,North,360,0.0,0.0,85,0.00,,FEW,0.00,97.00,VWS V14.01,2013-08-30 13:02:00,
2013-08-30 09:03:00,82.0,77.1,29.98,North,360,0.0,0.0,85,0.00,,FEW,0.00,98.00,VWS V14.01,2013-08-30 13:03:00,
2013-08-30 09:05:00,82.0,76.7,29.98,North,360,0.0,0.0,84,0.00,,FEW,0.00,98.00,VWS V14.01,2013-08-30 13:05:00,
2013-08-30 09:06:00,82.0,76.7,29.98,North,360,0.0,0.0,84,0.00,,FEW,0.00,98.00,VWS V14.01,2013-08-30 13:06:00,
2013-08-30 09:07:00,82.0,76.7,29.98,North,360,0.0,0.0,84,0.00,,FEW,0.00,98.00,VWS V14.01,2013-08-30 13:07:00,
2013-08-30 09:08:00,82.0,76.7,29.98,North,360,0.0,0.0,84,0.00,,FEW,0.00,98.00,VWS V14.01,2013-08-30 13:08:00,
2013-08-30 09:10:00,82.1,76.8,29.98,North,360,0.0,0.0,84,0.00,,FEW,0.00,102.00,VWS V14.01,2013-08-30 13:10:00,
2013-08-30 09:12:00,82.1,76.8,29.98,North,360,0.0,0.0,84,0.00,,FEW,0.00,104.00,VWS V14.01,2013-08-30 13:12:00,
2013-08-30 09:13:00,82.2,76.9,29.98,North,360,0.0,0.0,84,0.00,,FEW,0.00,109.00,VWS V14.01,2013-08-30 13:13:00,
2013-08-30 09:14:00,82.2,76.9,29.98,North,360,0.0,0.0,84,0.00,,FEW,0.00,113.00,VWS V14.01,2013-08-30 13:14:00,
2013-08-30 09:16:00,82.3,77.0,29.98,North,360,0.0,0.0,84,0.00,,FEW,0.00,114.00,VWS V14.01,2013-08-30 13:16:00,
2013-08-30 09:17:00,82.3,77.0,29.98,North,360,0.0,0.0,84,0.00,,FEW,0.00,118.00,VWS V14.01,2013-08-30 13:17:00,
2013-08-30 09:18:00,82.3,77.0,29.99,North,360,0.0,0.0,84,0.00,,FEW,0.00,123.00,VWS V14.01,2013-08-30 13:18:00,
2013-08-30 09:19:00,82.4,77.1,29.99,North,360,0.0,1.0,84,0.00,,FEW,0.00,125.00,VWS V14.01,2013-08-30 13:19:00,
2013-08-30 09:21:00,82.5,77.2,29.99,North,360,0.0,1.0,84,0.00,,FEW,0.00,130.00,VWS V14.01,2013-08-30 13:21:00,
2013-08-30 09:22:00,82.6,77.3,29.99,NNE,13,2.0,2.0,84,0.00,,FEW,0.00,132.00,VWS V14.01,2013-08-30 13:22:00,
2013-08-30 09:23:00,82.6,77.3,29.99,NNE,14,2.0,2.0,84,0.00,,FEW,0.00,135.00,VWS V14.01,2013-08-30 13:23:00,
2013-08-30 09:25:00,82.7,77.4,29.99,NNE,17,0.0,2.0,84,0.00,,FEW,0.00,139.00,VWS V14.01,2013-08-30 13:25:00,
2013-08-30 09:26:00,82.8,77.1,29.99,NE,42,0.0,2.0,83,0.00,,FEW,0.00,141.00,VWS V14.01,2013-08-30 13:26:00,
2013-08-30 09:27:00,82.8,77.1,29.99,NE,52,1.0,3.0,83,0.00,,FEW,0.00,142.00,VWS V14.01,2013-08-30 13:27:00,
2013-08-30 09:28:00,82.8,77.1,29.99,NE,52,2.0,3.0,83,0.00,,FEW,0.00,139.00,VWS V14.01,2013-08-30 13:28:00,
2013-08-30 09:29:00,82.9,77.2,29.99,NE,52,1.0,3.0,83,0.00,,FEW,0.00,139.00,VWS V14.01,2013-08-30 13:29:00,
2013-08-30 09:31:00,82.9,77.2,29.99,SE,136,4.0,4.0,83,0.00,,FEW,0.00,134.00,VWS V14.01,2013-08-30 13:31:00,
2013-08-30 09:32:00,82.9,77.2,30.00,SE,136,0.0,4.0,83,0.00,,FEW,0.00,134.00,VWS V14.01,2013-08-30 13:32:00,
2013-08-30 09:34:00,83.0,77.3,30.00,SE,140,0.0,2.0,83,0.00,,FEW,0.00,134.00,VWS V14.01,2013-08-30 13:34:00,
2013-08-30 09:35:00,83.0,77.3,30.00,SE,140,2.0,2.0,83,0.00,,FEW,0.00,137.00,VWS V14.01,2013-08-30 13:35:00,
2013-08-30 09:36:00,83.1,77.4,30.00,SE,140,2.0,2.0,83,0.00,,FEW,0.00,141.00,VWS V14.01,2013-08-30 13:36:00,
2013-08-30 09:37:00,83.1,77.4,30.00,SE,140,1.0,3.0,83,0.00,,FEW,0.00,146.00,VWS V14.01,2013-08-30 13:37:00,
2013-08-30 09:39:00,83.2,77.5,30.00,SE,132,0.0,3.0,83,0.00,,FEW,0.00,156.00,VWS V14.01,2013-08-30 13:39:00,
2013-08-30 09:40:00,83.2,77.5,30.00,SE,132,0.0,3.0,83,0.00,,FEW,0.00,160.00,VWS V14.01,2013-08-30 13:40:00,
2013-08-30 09:41:00,83.3,77.6,30.00,SE,132,2.0,3.0,83,0.00,,FEW,0.00,167.00,VWS V14.01,2013-08-30 13:41:00,
2013-08-30 09:42:00,83.3,77.6,30.00,SSE,157,1.0,3.0,83,0.00,,FEW,0.00,172.00,VWS V14.01,2013-08-30 13:42:00,
2013-08-30 09:44:00,83.4,77.3,30.00,SSE,157,2.0,2.0,82,0.00,,FEW,0.00,188.00,VWS V14.01,2013-08-30 13:44:00,
2013-08-30 09:45:00,83.4,77.3,30.00,SSE,157,2.0,2.0,82,0.00,,FEW,0.00,193.00,VWS V14.01,2013-08-30 13:45:00,
2013-08-30 09:46:00,83.4,77.7,30.00,SSE,157,1.0,2.0,83,0.00,,FEW,0.00,199.00,VWS V14.01,2013-08-30 13:46:00,
2013-08-30 09:47:00,83.5,77.8,30.00,SSE,151,1.0,2.0,83,0.00,,FEW,0.00,204.00,VWS V14.01,2013-08-30 13:47:00,
2013-08-30 09:50:00,83.7,77.6,30.01,South,169,1.0,3.0,82,0.00,,FEW,0.00,214.00,VWS V14.01,2013-08-30 13:50:00,
2013-08-30 09:51:00,83.7,77.6,30.01,SE,130,0.0,3.0,82,0.00,,FEW,0.00,221.00,VWS V14.01,2013-08-30 13:51:00,
2013-08-30 09:52:00,83.7,77.6,30.01,SSE,147,0.0,3.0,82,0.00,,FEW,0.00,236.00,VWS V14.01,2013-08-30 13:52:00,
2013-08-30 09:53:00,83.8,77.7,30.01,SSE,147,1.0,3.0,82,0.00,,FEW,0.00,236.00,VWS V14.01,2013-08-30 13:53:00,
2013-08-30 09:55:00,83.8,77.3,30.01,SE,136,2.0,3.0,81,0.00,,FEW,0.00,234.00,VWS V14.01,2013-08-30 13:55:00,
2013-08-30 09:56:00,83.8,77.3,30.01,SE,136,2.0,3.0,81,0.00,,FEW,0.00,230.00,VWS V14.01,2013-08-30 13:56:00,
2013-08-30 09:57:00,83.8,77.3,30.01,SE,132,0.0,3.0,81,0.00,,FEW,0.00,225.00,VWS V14.01,2013-08-30 13:57:00,
2013-08-30 09:58:00,83.8,77.3,30.01,SE,136,1.0,3.0,81,0.00,,FEW,0.00,225.00,VWS V14.01,2013-08-30 13:58:00,
2013-08-30 10:00:00,84.0,77.5,30.01,SSW,192,3.0,4.0,81,0.00,,FEW,0.00,213.00,VWS V14.01,2013-08-30 14:00:00,
2013-08-30 10:01:00,84.1,77.3,30.01,SSW,202,3.0,4.0,80,0.00,,FEW,0.00,206.00,VWS V14.01,2013-08-30 14:01:00,
2013-08-30 10:02:00,84.1,77.3,30.01,SSW,204,4.0,4.0,80,0.00,,FEW,0.00,199.00,VWS V14.01,2013-08-30 14:02:00,
2013-08-30 10:03:00,84.1,77.3,30.01,SSE,167,3.0,4.0,80,0.00,,FEW,0.00,190.00,VWS V14.01,2013-08-30 14:03:00,
2013-08-30 10:05:00,84.2,77.4,30.01,SSW,194,3.0,5.0,80,0.00,,FEW,0.00,172.00,VWS V14.01,2013-08-30 14:05:00,
2013-08-30 10:06:00,84.3,77.1,30.01,South,188,1.0,5.0,79,0.00,,FEW,0.00,160.00,VWS V14.01,2013-08-30 14:06:00,
2013-08-30 10:07:00,84.3,77.1,30.01,South,191,2.0,5.0,79,0.00,,FEW,0.00,160.00,VWS V14.01,2013-08-30 14:07:00,
2013-08-30 10:08:00,84.3,77.1,30.01,South,183,4.0,5.0,79,0.00,,FEW,0.00,156.00,VWS V14.01,2013-08-30 14:08:00,
2013-08-30 10:11:00,84.3,77.1,30.01,South,172,2.0,5.0,79,0.00,,FEW,0.00,144.00,VWS V14.01,2013-08-30 14:11:00,
2013-08-30 10:12:00,84.4,77.2,30.01,South,173,2.0,5.0,79,0.00,,FEW,0.00,142.00,VWS V14.01,2013-08-30 14:12:00,
2013-08-30 10:13:00,84.4,77.2,30.01,South,180,2.0,5.0,79,0.00,,FEW,0.00,141.00,VWS V14.01,2013-08-30 14:13:00,
2013-08-30 10:16:00,84.5,77.3,30.01,South,184,1.0,2.0,79,0.00,,FEW,0.00,151.00,VWS V14.01,2013-08-30 14:16:00,
2013-08-30 10:17:00,84.5,77.3,30.01,South,181,2.0,3.0,79,0.00,,FEW,0.00,160.00,VWS V14.01,2013-08-30 14:17:00,
2013-08-30 10:18:00,84.5,77.3,30.01,South,186,2.0,3.0,79,0.00,,FEW,0.00,167.00,VWS V14.01,2013-08-30 14:18:00,
2013-08-30 10:21:00,84.6,77.4,30.01,SE,143,1.0,4.0,79,0.00,,FEW,0.00,185.00,VWS V14.01,2013-08-30 14:21:00,
2013-08-30 10:22:00,84.6,77.4,30.01,SSE,161,3.0,4.0,79,0.00,,FEW,0.00,185.00,VWS V14.01,2013-08-30 14:22:00,
2013-08-30 10:23:00,84.6,77.4,30.01,SW,218,0.0,4.0,79,0.00,,FEW,0.00,179.00,VWS V14.01,2013-08-30 14:23:00,
2013-08-30 10:24:00,84.6,77.4,30.01,South,174,0.0,2.0,79,0.00,,FEW,0.00,178.00,VWS V14.01,2013-08-30 14:24:00,
2013-08-30 10:26:00,84.6,77.4,30.01,SE,129,2.0,3.0,79,0.00,,FEW,0.00,178.00,VWS V14.01,2013-08-30 14:26:00,
2013-08-30 10:27:00,84.6,77.4,30.01,SSE,158,2.0,3.0,79,0.00,,FEW,0.00,179.00,VWS V14.01,2013-08-30 14:27:00,
2013-08-30 10:28:00,84.6,77.4,30.01,SSE,163,1.0,3.0,79,0.00,,FEW,0.00,183.00,VWS V14.01,2013-08-30 14:28:00,
2013-08-30 10:29:00,84.6,77.4,30.01,SE,141,2.0,3.0,79,0.00,,FEW,0.00,188.00,VWS V14.01,2013-08-30 14:29:00,
2013-08-30 10:31:00,84.6,77.4,30.01,SSW,201,2.0,3.0,79,0.00,,FEW,0.00,199.00,VWS V14.01,2013-08-30 14:31:00,
2013-08-30 10:32:00,84.6,77.4,30.01,South,189,0.0,3.0,79,0.00,,FEW,0.00,202.00,VWS V14.01,2013-08-30 14:32:00,
2013-08-30 10:33:00,84.7,77.5,30.01,SSW,206,2.0,3.0,79,0.00,,FEW,0.00,209.00,VWS V14.01,2013-08-30 14:33:00,
2013-08-30 10:34:00,84.7,77.5,30.01,South,190,1.0,3.0,79,0.00,,FEW,0.00,220.00,VWS V14.01,2013-08-30 14:34:00,
2013-08-30 10:36:00,84.8,77.6,30.01,SSW,196,4.0,4.0,79,0.00,,FEW,0.00,260.00,VWS V14.01,2013-08-30 14:36:00,
2013-08-30 10:37:00,84.8,77.6,30.01,SW,227,4.0,4.0,79,0.00,,FEW,0.00,258.00,VWS V14.01,2013-08-30 14:37:00,
2013-08-30 10:38:00,84.8,77.6,30.01,SSW,212,3.0,4.0,79,0.00,,FEW,0.00,258.00,VWS V14.01,2013-08-30 14:38:00,
2013-08-30 10:39:00,84.8,77.6,30.01,SSW,198,1.0,4.0,79,0.00,,FEW,0.00,255.00,VWS V14.01,2013-08-30 14:39:00,
2013-08-30 10:42:00,84.9,77.3,30.01,South,190,2.0,5.0,78,0.00,,FEW,0.00,250.00,VWS V14.01,2013-08-30 14:42:00,
2013-08-30 10:43:00,84.9,77.3,30.01,South,183,3.0,5.0,78,0.00,,FEW,0.00,250.00,VWS V14.01,2013-08-30 14:43:00,
2013-08-30 10:44:00,85.0,77.4,30.01,South,171,1.0,4.0,78,0.00,,FEW,0.00,241.00,VWS V14.01,2013-08-30 14:44:00,
2013-08-30 10:45:00,85.0,77.4,30.01,South,172,0.0,4.0,78,0.00,,FEW,0.00,241.00,VWS V14.01,2013-08-30 14:45:00,
2013-08-30 10:47:00,85.1,77.5,30.00,SSE,167,2.0,4.0,78,0.00,,FEW,0.00,237.00,VWS V14.01,2013-08-30 14:47:00,
2013-08-30 10:48:00,85.1,77.5,30.00,SSE,156,1.0,4.0,78,0.00,,FEW,0.00,239.00,VWS V14.01,2013-08-30 14:48:00,
2013-08-30 10:50:00,85.2,77.6,30.00,SSE,160,2.0,4.0,78,0.00,,FEW,0.00,246.00,VWS V14.01,2013-08-30 14:50:00,
2013-08-30 10:52:00,85.2,77.6,30.00,SSE,157,2.0,4.0,78,0.00,,FEW,0.00,255.00,VWS V14.01,2013-08-30 14:52:00,
2013-08-30 10:53:00,85.2,77.6,30.00,SSE,159,0.0,4.0,78,0.00,,FEW,0.00,262.00,VWS V14.01,2013-08-30 14:53:00,
2013-08-30 10:55:00,85.3,77.3,30.00,South,178,1.0,3.0,77,0.00,,FEW,0.00,271.00,VWS V14.01,2013-08-30 14:55:00,
2013-08-30 10:57:00,85.4,77.4,30.00,SSE,148,1.0,4.0,77,0.00,,FEW,0.00,274.00,VWS V14.01,2013-08-30 14:57:00,
2013-08-30 10:58:00,85.4,77.4,30.00,SE,143,1.0,4.0,77,0.00,,FEW,0.00,274.00,VWS V14.01,2013-08-30 14:58:00,
2013-08-30 11:00:00,85.6,77.6,30.00,ESE,121,2.0,4.0,77,0.00,,FEW,0.00,292.00,VWS V14.01,2013-08-30 15:00:00,
2013-08-30 11:03:00,85.6,77.6,29.99,SE,140,0.0,4.0,77,0.00,,FEW,0.00,338.00,VWS V14.01,2013-08-30 15:03:00,
2013-08-30 11:06:00,85.6,77.2,29.99,SSW,194,2.0,5.0,76,0.00,,FEW,0.00,536.00,VWS V14.01,2013-08-30 15:06:00,
2013-08-30 11:08:00,85.7,77.3,29.99,South,176,2.0,5.0,76,0.00,,FEW,0.00,680.00,VWS V14.01,2013-08-30 15:08:00,
2013-08-30 11:11:00,86.2,77.8,29.99,South,186,3.0,5.0,76,0.00,,FEW,0.00,547.00,VWS V14.01,2013-08-30 15:11:00,
2013-08-30 11:13:00,86.4,77.5,29.99,South,180,3.0,5.0,75,0.00,,FEW,0.00,536.00,VWS V14.01,2013-08-30 15:13:00,
2013-08-30 11:16:00,86.5,77.2,29.99,SSW,207,3.0,5.0,74,0.00,,FEW,0.00,482.00,VWS V14.01,2013-08-30 15:16:00,
2013-08-30 11:18:00,86.5,77.2,29.99,South,174,2.0,5.0,74,0.00,,FEW,0.00,457.00,VWS V14.01,2013-08-30 15:18:00,
2013-08-30 11:19:00,86.5,77.2,29.99,SSW,204,4.0,5.0,74,0.00,,FEW,0.00,457.00,VWS V14.01,2013-08-30 15:19:00,
2013-08-30 11:22:00,86.5,76.8,29.99,SSW,200,3.0,6.0,73,0.00,,FEW,0.00,482.00,VWS V14.01,2013-08-30 15:22:00,
2013-08-30 11:23:00,86.5,76.8,29.99,South,188,4.0,4.0,73,0.00,,FEW,0.00,496.00,VWS V14.01,2013-08-30 15:23:00,
2013-08-30 11:24:00,86.5,76.8,29.99,SSW,202,3.0,5.0,73,0.00,,FEW,0.00,496.00,VWS V14.01,2013-08-30 15:24:00,
2013-08-30 11:28:00,86.6,76.9,29.99,SSE,158,4.0,6.0,73,0.00,,FEW,0.00,536.00,VWS V14.01,2013-08-30 15:28:00,
2013-08-30 11:29:00,86.6,76.9,29.99,SW,215,2.0,6.0,73,0.00,,FEW,0.00,554.00,VWS V14.01,2013-08-30 15:29:00,
2013-08-30 11:33:00,86.8,77.1,29.98,South,171,3.0,6.0,73,0.00,,FEW,0.00,626.00,VWS V14.01,2013-08-30 15:33:00,
2013-08-30 11:34:00,86.8,77.1,29.98,SSE,167,3.0,3.0,73,0.00,,FEW,0.00,679.00,VWS V14.01,2013-08-30 15:34:00,
2013-08-30 11:38:00,87.0,77.3,29.98,South,172,4.0,5.0,73,0.00,,FEW,0.00,751.00,VWS V14.01,2013-08-30 15:38:00,
2013-08-30 11:39:00,87.2,77.5,29.98,SE,128,0.0,5.0,73,0.00,,FEW,0.00,728.00,VWS V14.01,2013-08-30 15:39:00,
2013-08-30 11:41:00,87.5,77.8,29.98,SE,134,2.0,5.0,73,0.00,,FEW,0.00,744.00,VWS V14.01,2013-08-30 15:41:00,
2013-08-30 11:43:00,87.7,78.0,29.98,SSW,193,2.0,2.0,73,0.00,,FEW,0.00,731.00,VWS V14.01,2013-08-30 15:43:00,
2013-08-30 11:44:00,87.8,78.1,29.98,SE,137,4.0,4.0,73,0.00,,FEW,0.00,744.00,VWS V14.01,2013-08-30 15:44:00,
2013-08-30 11:45:00,87.8,78.1,29.98,ESE,115,4.0,4.0,73,0.00,,FEW,0.00,671.00,VWS V14.01,2013-08-30 15:45:00,
2013-08-30 11:46:00,87.7,78.4,29.98,South,189,3.0,5.0,74,0.00,,FEW,0.00,782.00,VWS V14.01,2013-08-30 15:46:00,
2013-08-30 11:48:00,87.7,78.0,29.99,SSE,163,2.0,5.0,73,0.00,,FEW,0.00,728.00,VWS V14.01,2013-08-30 15:48:00,
2013-08-30 11:49:00,87.7,78.0,29.99,SE,133,2.0,5.0,73,0.00,,FEW,0.00,728.00,VWS V14.01,2013-08-30 15:49:00,
2013-08-30 11:50:00,87.7,78.4,29.99,South,184,5.0,5.0,74,0.00,,FEW,0.00,728.00,VWS V14.01,2013-08-30 15:50:00,
2013-08-30 11:53:00,87.7,78.4,29.99,South,171,2.0,6.0,74,0.00,,FEW,0.00,691.00,VWS V14.01,2013-08-30 15:53:00,
2013-08-30 11:54:00,87.5,78.2,29.99,SE,132,3.0,4.0,74,0.00,,FEW,0.00,705.00,VWS V14.01,2013-08-30 15:54:00,
2013-08-30 11:55:00,87.4,78.1,29.99,South,175,5.0,5.0,74,0.00,,FEW,0.00,705.00,VWS V14.01,2013-08-30 15:55:00,
2013-08-30 11:58:00,87.0,78.1,29.99,SE,134,6.0,8.0,75,0.00,,FEW,0.00,680.00,VWS V14.01,2013-08-30 15:58:00,
2013-08-30 11:59:00,87.0,78.5,29.99,SSE,165,6.0,8.0,76,0.00,,FEW,0.00,661.00,VWS V14.01,2013-08-30 15:59:00,
2013-08-30 12:00:00,87.0,78.5,29.99,South,177,3.0,8.0,76,0.00,,FEW,0.00,617.00,VWS V14.01,2013-08-30 16:00:00,
2013-08-30 12:03:00,86.9,78.4,29.99,SSE,155,5.0,5.0,76,0.00,,FEW,0.00,640.00,VWS V14.01,2013-08-30 16:03:00,
2013-08-30 12:04:00,86.9,78.0,29.99,South,174,2.0,5.0,75,0.00,,FEW,0.00,664.00,VWS V14.01,2013-08-30 16:04:00,
2013-08-30 12:05:00,86.9,78.0,29.99,South,180,3.0,5.0,75,0.00,,FEW,0.00,664.00,VWS V14.01,2013-08-30 16:05:00,
2013-08-30 12:09:00,87.0,78.5,29.99,South,182,1.0,5.0,76,0.00,,FEW,0.00,775.00,VWS V14.01,2013-08-30 16:09:00,
2013-08-30 12:10:00,87.1,78.6,29.99,South,175,2.0,5.0,76,0.00,,FEW,0.00,793.00,VWS V14.01,2013-08-30 16:10:00,
2013-08-30 12:14:00,87.0,78.1,29.99,South,191,2.0,5.0,75,0.00,,FEW,0.00,388.00,VWS V14.01,2013-08-30 16:14:00,
2013-08-30 12:15:00,87.0,78.1,29.99,SE,134,3.0,5.0,75,0.00,,FEW,0.00,388.00,VWS V14.01,2013-08-30 16:15:00,
2013-08-30 12:16:00,87.0,78.1,29.99,South,175,3.0,5.0,75,0.00,,FEW,0.00,403.00,VWS V14.01,2013-08-30 16:16:00,
2013-08-30 12:19:00,86.6,78.1,29.99,SSE,167,1.0,6.0,76,0.00,,FEW,0.00,872.00,VWS V14.01,2013-08-30 16:19:00,
2013-08-30 12:20:00,86.6,77.7,29.99,South,191,3.0,6.0,75,0.00,,FEW,0.00,872.00,VWS V14.01,2013-08-30 16:20:00,
2013-08-30 12:21:00,86.6,77.7,29.99,SSW,200,3.0,6.0,75,0.00,,FEW,0.00,373.00,VWS V14.01,2013-08-30 16:21:00,
2013-08-30 12:24:00,86.6,77.7,29.99,South,178,0.0,4.0,75,0.00,,FEW,0.00,454.00,VWS V14.01,2013-08-30 16:24:00,
2013-08-30 12:25:00,86.6,77.7,29.99,South,188,3.0,4.0,75,0.00,,FEW,0.00,454.00,VWS V14.01,2013-08-30 16:25:00,
2013-08-30 12:26:00,86.6,77.7,29.99,SSW,192,1.0,4.0,75,0.00,,FEW,0.00,441.00,VWS V14.01,2013-08-30 16:26:00,
2013-08-30 12:30:00,86.4,77.9,29.99,South,188,3.0,5.0,76,0.00,,FEW,0.00,422.00,VWS V14.01,2013-08-30 16:30:00,
2013-08-30 12:31:00,86.4,77.9,29.99,SSW,205,4.0,5.0,76,0.00,,FEW,0.00,422.00,VWS V14.01,2013-08-30 16:31:00,
2013-08-30 12:32:00,86.3,77.4,29.98,South,188,2.0,5.0,75,0.00,,FEW,0.00,427.00,VWS V14.01,2013-08-30 16:32:00,
2013-08-30 12:35:00,86.1,77.7,29.98,South,178,2.0,4.0,76,0.00,,FEW,0.00,469.00,VWS V14.01,2013-08-30 16:35:00,
2013-08-30 12:36:00,86.1,77.7,29.98,South,175,3.0,5.0,76,0.00,,FEW,0.00,489.00,VWS V14.01,2013-08-30 16:36:00,
2013-08-30 12:37:00,86.1,77.7,29.98,SW,215,4.0,5.0,76,0.00,,FEW,0.00,564.00,VWS V14.01,2013-08-30 16:37:00,
2013-08-30 12:40:00,86.1,77.7,29.98,SSE,156,3.0,5.0,76,0.00,,FEW,0.00,422.00,VWS V14.01,2013-08-30 16:40:00,
2013-08-30 12:41:00,86.1,77.7,29.98,SSE,161,1.0,5.0,76,0.00,,FEW,0.00,422.00,VWS V14.01,2013-08-30 16:41:00,
2013-08-30 12:42:00,86.1,77.7,29.98,South,174,1.0,5.0,76,0.00,,FEW,0.00,420.00,VWS V14.01,2013-08-30 16:42:00,
2013-08-30 12:45:00,86.1,77.7,29.98,South,174,2.0,4.0,76,0.00,,FEW,0.00,473.00,VWS V14.01,2013-08-30 16:45:00,
2013-08-30 12:46:00,86.0,77.6,29.98,South,186,1.0,4.0,76,0.00,,FEW,0.00,475.00,VWS V14.01,2013-08-30 16:46:00,
2013-08-30 12:48:00,86.0,77.6,29.97,South,169,2.0,4.0,76,0.00,,FEW,0.00,506.00,VWS V14.01,2013-08-30 16:48:00,
2013-08-30 12:50:00,86.0,77.6,29.97,SSW,194,1.0,4.0,76,0.00,,FEW,0.00,543.00,VWS V14.01,2013-08-30 16:50:00,
2013-08-30 12:51:00,86.1,77.7,29.97,SSE,163,2.0,4.0,76,0.00,,FEW,0.00,526.00,VWS V14.01,2013-08-30 16:51:00,
2013-08-30 12:53:00,86.3,77.8,29.97,SSW,196,2.0,4.0,76,0.00,,FEW,0.00,471.00,VWS V14.01,2013-08-30 16:53:00,
2013-08-30 12:55:00,86.3,77.8,29.97,SSW,200,2.0,4.0,76,0.00,,FEW,0.00,459.00,VWS V14.01,2013-08-30 16:55:00,
2013-08-30 12:56:00,86.3,77.8,29.97,SSW,198,5.0,5.0,76,0.00,,FEW,0.00,459.00,VWS V14.01,2013-08-30 16:56:00,
2013-08-30 12:57:00,86.3,77.8,29.97,SSW,198,5.0,5.0,76,0.00,,FEW,0.00,464.00,VWS V14.01,2013-08-30 16:57:00,
2013-08-30 13:00:00,86.2,77.8,29.97,South,188,3.0,5.0,76,0.00,,FEW,0.00,450.00,VWS V14.01,2013-08-30 17:00:00,
2013-08-30 13:01:00,86.2,77.3,29.97,SSW,213,4.0,5.0,75,0.00,,FEW,0.00,422.00,VWS V14.01,2013-08-30 17:01:00,
2013-08-30 13:02:00,86.2,77.3,29.97,SSW,207,2.0,5.0,75,0.00,,FEW,0.00,417.00,VWS V14.01,2013-08-30 17:02:00,
2013-08-30 13:05:00,86.1,77.2,29.97,SSW,204,4.0,5.0,75,0.00,,FEW,0.00,420.00,VWS V14.01,2013-08-30 17:05:00,
2013-08-30 13:06:00,86.1,77.2,29.97,SSW,210,0.0,5.0,75,0.00,,FEW,0.00,425.00,VWS V14.01,2013-08-30 17:06:00,
2013-08-30 13:07:00,86.1,77.7,29.97,SW,223,2.0,5.0,76,0.00,,FEW,0.00,429.00,VWS V14.01,2013-08-30 17:07:00,
2013-08-30 13:11:00,86.1,77.2,29.97,SW,215,2.0,5.0,75,0.00,,FEW,0.00,441.00,VWS V14.01,2013-08-30 17:11:00,
2013-08-30 13:12:00,86.2,77.3,29.97,SW,231,2.0,5.0,75,0.00,,FEW,0.00,455.00,VWS V14.01,2013-08-30 17:12:00,
2013-08-30 13:13:00,86.2,77.3,29.97,SW,236,2.0,2.0,75,0.00,,FEW,0.00,455.00,VWS V14.01,2013-08-30 17:13:00,
2013-08-30 13:15:00,86.3,77.4,29.97,SW,217,1.0,2.0,75,0.00,,FEW,0.00,490.00,VWS V14.01,2013-08-30 17:15:00,
2013-08-30 13:16:00,86.3,77.4,29.97,SW,217,1.0,2.0,75,0.00,,FEW,0.00,490.00,VWS V14.01,2013-08-30 17:16:00,
2013-08-30 13:18:00,86.4,77.5,29.96,SSW,213,3.0,3.0,75,0.00,,FEW,0.00,531.00,VWS V14.01,2013-08-30 17:18:00,
2013-08-30 13:20:00,86.3,77.4,29.96,SSW,192,2.0,4.0,75,0.00,,FEW,0.00,666.00,VWS V14.01,2013-08-30 17:20:00,
2013-08-30 13:21:00,86.3,77.4,29.96,South,175,3.0,4.0,75,0.00,,FEW,0.00,666.00,VWS V14.01,2013-08-30 17:21:00,
2013-08-30 13:22:00,86.2,77.3,29.96,South,175,2.0,4.0,75,0.00,,FEW,0.00,666.00,VWS V14.01,2013-08-30 17:22:00,
2013-08-30 13:23:00,86.3,77.4,29.96,SSW,210,1.0,3.0,75,0.00,,FEW,0.00,772.00,VWS V14.01,2013-08-30 17:23:00,
2013-08-30 13:25:00,86.4,77.5,29.96,SSW,207,1.0,3.0,75,0.00,,FEW,0.00,772.00,VWS V14.01,2013-08-30 17:25:00,
2013-08-30 13:26:00,86.6,77.3,29.96,SSW,200,2.0,3.0,74,0.00,,FEW,0.00,886.00,VWS V14.01,2013-08-30 17:26:00,
2013-08-30 13:27:00,86.6,77.3,29.96,SSW,200,1.0,3.0,74,0.00,,FEW,0.00,886.00,VWS V14.01,2013-08-30 17:27:00,
2013-08-30 13:29:00,86.7,77.4,29.96,SSW,208,2.0,3.0,74,0.00,,FEW,0.00,886.00,VWS V14.01,2013-08-30 17:29:00,
2013-08-30 13:30:00,86.7,77.4,29.96,SSW,208,2.0,3.0,74,0.00,,FEW,0.00,886.00,VWS V14.01,2013-08-30 17:30:00,
2013-08-30 13:31:00,86.6,77.3,29.96,South,181,3.0,3.0,74,0.00,,FEW,0.00,670.00,VWS V14.01,2013-08-30 17:31:00,
2013-08-30 13:32:00,86.5,77.6,29.96,South,191,0.0,3.0,75,0.00,,FEW,0.00,916.00,VWS V14.01,2013-08-30 17:32:00,
2013-08-30 13:34:00,87.0,77.7,29.96,NE,55,1.0,2.0,74,0.00,,FEW,0.00,916.00,VWS V14.01,2013-08-30 17:34:00,
2013-08-30 13:35:00,87.1,77.8,29.96,NE,55,1.0,2.0,74,0.00,,FEW,0.00,916.00,VWS V14.01,2013-08-30 17:35:00,
2013-08-30 13:36:00,87.2,77.5,29.96,ENE,58,1.0,2.0,73,0.00,,FEW,0.00,916.00,VWS V14.01,2013-08-30 17:36:00,
2013-08-30 13:37:00,87.3,77.6,29.96,ENE,58,0.0,2.0,73,0.00,,FEW,0.00,459.00,VWS V14.01,2013-08-30 17:37:00,
2013-08-30 13:39:00,87.7,78.0,29.96,ENE,59,0.0,2.0,73,0.00,,FEW,0.00,448.00,VWS V14.01,2013-08-30 17:39:00,
2013-08-30 13:40:00,87.8,77.7,29.96,North,9,2.0,2.0,72,0.00,,FEW,0.00,448.00,VWS V14.01,2013-08-30 17:40:00,
2013-08-30 13:41:00,87.9,77.8,29.96,North,355,0.0,2.0,72,0.00,,FEW,0.00,445.00,VWS V14.01,2013-08-30 17:41:00,
2013-08-30 13:42:00,88.0,77.8,29.96,North,350,0.0,2.0,72,0.00,,FEW,0.00,424.00,VWS V14.01,2013-08-30 17:42:00,
2013-08-30 13:45:00,88.2,77.6,29.96,North,360,1.0,4.0,71,0.00,,FEW,0.00,431.00,VWS V14.01,2013-08-30 17:45:00,
2013-08-30 13:46:00,88.1,77.5,29.96,NNW,339,2.0,4.0,71,0.00,,FEW,0.00,431.00,VWS V14.01,2013-08-30 17:46:00,
2013-08-30 13:47:00,88.2,78.0,29.96,NNW,331,0.0,4.0,72,0.00,,FEW,0.00,408.00,VWS V14.01,2013-08-30 17:47:00,
2013-08-30 13:48:00,88.2,78.0,29.96,North,355,0.0,4.0,72,0.00,,FEW,0.00,408.00,VWS V14.01,2013-08-30 17:48:00,
2013-08-30 13:50:00,88.1,77.5,29.96,North,5,0.0,4.0,71,0.00,,FEW,0.00,399.00,VWS V14.01,2013-08-30 17:50:00,
2013-08-30 13:51:00,88.1,77.5,29.96,North,5,0.0,4.0,71,0.00,,FEW,0.00,399.00,VWS V14.01,2013-08-30 17:51:00,
2013-08-30 13:52:00,88.1,77.5,29.96,North,5,0.0,4.0,71,0.00,,FEW,0.00,418.00,VWS V14.01,2013-08-30 17:52:00,
2013-08-30 13:53:00,88.0,77.4,29.96,NE,40,4.0,4.0,71,0.00,,FEW,0.00,487.00,VWS V14.01,2013-08-30 17:53:00,
2013-08-30 13:56:00,88.1,77.5,29.96,NNE,26,1.0,2.0,71,0.00,,FEW,0.00,380.00,VWS V14.01,2013-08-30 17:56:00,
2013-08-30 13:57:00,88.2,77.6,29.96,NNE,32,2.0,3.0,71,0.00,,FEW,0.00,364.00,VWS V14.01,2013-08-30 17:57:00,
2013-08-30 13:58:00,88.2,78.0,29.96,NNE,17,0.0,3.0,72,0.00,,FEW,0.00,359.00,VWS V14.01,2013-08-30 17:58:00,
2013-08-30 14:01:00,88.3,77.7,29.96,NNW,346,0.0,3.0,71,0.00,,FEW,0.00,348.00,VWS V14.01,2013-08-30 18:01:00,
2013-08-30 14:02:00,88.3,77.7,29.96,NNW,340,1.0,3.0,71,0.00,,FEW,0.00,346.00,VWS V14.01,2013-08-30 18:02:00,
2013-08-30 14:03:00,88.3,77.7,29.96,NNW,341,5.0,5.0,71,0.00,,FEW,0.00,348.00,VWS V14.01,2013-08-30 18:03:00,
2013-08-30 14:04:00,88.3,77.7,29.96,NNW,336,1.0,5.0,71,0.00,,FEW,0.00,348.00,VWS V14.01,2013-08-30 18:04:00,
2013-08-30 14:06:00,88.1,77.5,29.96,NNW,342,1.0,5.0,71,0.00,,FEW,0.00,322.00,VWS V14.01,2013-08-30 18:06:00,
2013-08-30 14:07:00,88.1,77.5,29.96,NNW,342,0.0,5.0,71,0.00,,FEW,0.00,322.00,VWS V14.01,2013-08-30 18:07:00,
2013-08-30 14:08:00,88.0,77.8,29.96,North,355,0.0,5.0,72,0.00,,FEW,0.00,292.00,VWS V14.01,2013-08-30 18:08:00,
2013-08-30 14:09:00,88.0,77.8,29.96,North,355,0.0,5.0,72,0.00,,FEW,0.00,287.00,VWS V14.01,2013-08-30 18:09:00,
2013-08-30 14:11:00,88.0,77.8,29.96,NNE,13,2.0,5.0,72,0.00,,FEW,0.00,287.00,VWS V14.01,2013-08-30 18:11:00,
2013-08-30 14:12:00,88.0,77.8,29.96,NNE,13,0.0,5.0,72,0.00,,FEW,0.00,287.00,VWS V14.01,2013-08-30 18:12:00,
2013-08-30 14:13:00,88.1,77.9,29.96,North,5,0.0,2.0,72,0.00,,FEW,0.00,299.00,VWS V14.01,2013-08-30 18:13:00,
2013-08-30 14:14:00,88.1,77.9,29.96,North,5,0.0,2.0,72,0.00,,FEW,0.00,299.00,VWS V14.01,2013-08-30 18:14:00,
2013-08-30 14:16:00,88.3,78.1,29.96,NE,40,1.0,3.0,72,0.00,,FEW,0.00,318.00,VWS V14.01,2013-08-30 18:16:00,
2013-08-30 14:17:00,88.3,78.1,29.96,NE,40,1.0,3.0,72,0.00,,FEW,0.00,318.00,VWS V14.01,2013-08-30 18:17:00,
2013-08-30 14:18:00,88.2,78.0,29.96,NNE,28,1.0,4.0,72,0.00,,FEW,0.00,327.00,VWS V14.01,2013-08-30 18:18:00,
2013-08-30 14:19:00,88.2,78.0,29.96,North,10,3.0,4.0,72,0.00,,FEW,0.00,338.00,VWS V14.01,2013-08-30 18:19:00,
2013-08-30 14:21:00,88.2,77.6,29.96,NNE,28,2.0,4.0,71,0.00,,FEW,0.00,380.00,VWS V14.01,2013-08-30 18:21:00,
2013-08-30 14:22:00,88.2,77.6,29.96,NNE,28,0.0,4.0,71,0.00,,FEW,0.00,380.00,VWS V14.01,2013-08-30 18:22:00,
2013-08-30 14:23:00,88.2,78.0,29.96,NNE,26,3.0,4.0,72,0.00,,FEW,0.00,394.00,VWS V14.01,2013-08-30 18:23:00,
2013-08-30 14:24:00,88.2,77.6,29.96,North,355,1.0,4.0,71,0.00,,FEW,0.00,394.00,VWS V14.01,2013-08-30 18:24:00,
2013-08-30 14:25:00,88.1,77.5,29.96,NNW,342,2.0,4.0,71,0.00,,FEW,0.00,397.00,VWS V14.01,2013-08-30 18:25:00,
2013-08-30 14:27:00,88.0,77.4,29.96,NNW,329,3.0,4.0,71,0.00,,FEW,0.00,445.00,VWS V14.01,2013-08-30 18:27:00,
2013-08-30 14:28:00,87.7,77.1,29.96,NNW,329,1.0,4.0,71,0.00,,FEW,0.00,497.00,VWS V14.01,2013-08-30 18:28:00,
2013-08-30 14:29:00,87.5,77.4,29.96,NNW,329,0.0,4.0,72,0.00,,FEW,0.00,497.00,VWS V14.01,2013-08-30 18:29:00,
2013-08-30 14:30:00,87.5,77.4,29.96,NNW,329,1.0,4.0,72,0.00,,FEW,0.00,497.00,VWS V14.01,2013-08-30 18:30:00,
2013-08-30 14:32:00,87.4,77.3,29.96,North,355,0.0,4.0,72,0.00,,FEW,0.00,615.00,VWS V14.01,2013-08-30 18:32:00,
2013-08-30 14:33:00,87.4,77.7,29.95,NNW,331,3.0,4.0,73,0.00,,FEW,0.00,615.00,VWS V14.01,2013-08-30 18:33:00,
2013-08-30 14:34:00,87.5,77.8,29.95,NNW,332,3.0,4.0,73,0.00,,FEW,0.00,471.00,VWS V14.01,2013-08-30 18:34:00,
2013-08-30 14:35:00,87.6,77.9,29.95,NNW,329,0.0,4.0,73,0.00,,FEW,0.00,469.00,VWS V14.01,2013-08-30 18:35:00,
2013-08-30 14:37:00,87.6,77.5,29.95,NW,317,1.0,4.0,72,0.00,,FEW,0.00,431.00,VWS V14.01,2013-08-30 18:37:00,
2013-08-30 14:38:00,87.6,77.9,29.95,NW,308,3.0,4.0,73,0.00,,FEW,0.00,413.00,VWS V14.01,2013-08-30 18:38:00,
2013-08-30 14:39:00,87.6,77.5,29.95,WNW,297,2.0,4.0,72,0.00,,FEW,0.00,404.00,VWS V14.01,2013-08-30 18:39:00,
2013-08-30 14:40:00,87.6,77.5,29.95,WNW,294,2.0,4.0,72,0.00,,FEW,0.00,396.00,VWS V14.01,2013-08-30 18:40:00,
2013-08-30 14:41:00,87.6,77.5,29.95,WNW,290,3.0,4.0,72,0.00,,FEW,0.00,399.00,VWS V14.01,2013-08-30 18:41:00,
2013-08-30 14:42:00,87.6,77.9,29.95,West,276,3.0,4.0,73,0.00,,FEW,0.00,401.00,VWS V14.01,2013-08-30 18:42:00,
2013-08-30 14:44:00,87.6,77.5,29.95,WSW,256,2.0,2.0,72,0.00,,FEW,0.00,417.00,VWS V14.01,2013-08-30 18:44:00,
2013-08-30 14:45:00,87.5,77.4,29.95,WSW,256,0.0,2.0,72,0.00,,FEW,0.00,429.00,VWS V14.01,2013-08-30 18:45:00,
2013-08-30 14:46:00,87.5,77.4,29.95,West,275,1.0,2.0,72,0.00,,FEW,0.00,438.00,VWS V14.01,2013-08-30 18:46:00,
2013-08-30 14:47:00,87.5,77.4,29.95,West,275,3.0,3.0,72,0.00,,FEW,0.00,450.00,VWS V14.01,2013-08-30 18:47:00,
2013-08-30 14:49:00,87.4,77.3,29.94,NNW,338,3.0,4.0,72,0.00,,FEW,0.00,471.00,VWS V14.01,2013-08-30 18:49:00,
2013-08-30 14:50:00,87.3,77.2,29.94,North,10,0.0,4.0,72,0.00,,FEW,0.00,506.00,VWS V14.01,2013-08-30 18:50:00,
2013-08-30 14:51:00,87.2,77.5,29.94,NW,306,1.0,4.0,73,0.00,,FEW,0.00,543.00,VWS V14.01,2013-08-30 18:51:00,
2013-08-30 14:52:00,87.3,77.6,29.94,NW,306,1.0,4.0,73,0.00,,FEW,0.00,543.00,VWS V14.01,2013-08-30 18:52:00,
2013-08-30 14:54:00,87.4,77.7,29.94,SSW,213,2.0,2.0,73,0.00,,FEW,0.00,469.00,VWS V14.01,2013-08-30 18:54:00,
2013-08-30 14:55:00,87.4,77.7,29.94,South,178,1.0,3.0,73,0.00,,FEW,0.00,461.00,VWS V14.01,2013-08-30 18:55:00,
2013-08-30 14:57:00,87.4,78.1,29.94,South,189,2.0,3.0,74,0.00,,FEW,0.00,461.00,VWS V14.01,2013-08-30 18:57:00,
2013-08-30 14:59:00,87.2,77.9,29.94,South,189,1.0,3.0,74,0.00,,FEW,0.00,473.00,VWS V14.01,2013-08-30 18:59:00,
2013-08-30 15:00:00,87.1,77.8,29.94,South,189,1.0,3.0,74,0.00,,FEW,0.00,466.00,VWS V14.01,2013-08-30 19:00:00,
2013-08-30 15:02:00,87.0,77.7,29.94,South,189,0.0,3.0,74,0.00,,FEW,0.00,448.00,VWS V14.01,2013-08-30 19:02:00,
2013-08-30 15:04:00,86.9,77.6,29.94,East,93,2.0,2.0,74,0.00,,FEW,0.00,422.00,VWS V14.01,2013-08-30 19:04:00,
2013-08-30 15:06:00,87.1,77.8,29.94,East,83,1.0,2.0,74,0.00,,FEW,0.00,443.00,VWS V14.01,2013-08-30 19:06:00,
2013-08-30 15:07:00,87.2,77.5,29.94,NE,42,1.0,2.0,73,0.00,,FEW,0.00,441.00,VWS V14.01,2013-08-30 19:07:00,
2013-08-30 15:10:00,87.4,77.7,29.94,NNE,31,0.0,3.0,73,0.00,,FEW,0.00,439.00,VWS V14.01,2013-08-30 19:10:00,
2013-08-30 15:11:00,87.5,77.8,29.94,North,360,3.0,3.0,73,0.00,,FEW,0.00,446.00,VWS V14.01,2013-08-30 19:11:00,
2013-08-30 15:12:00,87.6,77.9,29.94,NNE,26,4.0,5.0,73,0.00,,FEW,0.00,446.00,VWS V14.01,2013-08-30 19:12:00,
2013-08-30 15:13:00,87.6,77.9,29.94,NNE,26,2.0,5.0,73,0.00,,FEW,0.00,446.00,VWS V14.01,2013-08-30 19:13:00,
2013-08-30 15:14:00,87.6,77.5,29.94,NNE,23,2.0,2.0,72,0.00,,FEW,0.00,461.00,VWS V14.01,2013-08-30 19:14:00,
2013-08-30 15:15:00,87.6,77.9,29.94,NNE,23,2.0,2.0,73,0.00,,FEW,0.00,540.00,VWS V14.01,2013-08-30 19:15:00,
2013-08-30 15:17:00,87.7,78.0,29.94,NNW,343,3.0,3.0,73,0.00,,FEW,0.00,531.00,VWS V14.01,2013-08-30 19:17:00,
2013-08-30 15:18:00,87.7,78.0,29.93,NW,314,1.0,4.0,73,0.00,,FEW,0.00,489.00,VWS V14.01,2013-08-30 19:18:00,
2013-08-30 15:20:00,87.7,77.6,29.93,NNE,17,2.0,4.0,72,0.00,,FEW,0.00,501.00,VWS V14.01,2013-08-30 19:20:00,
2013-08-30 15:22:00,87.6,77.5,29.93,NNE,33,2.0,4.0,72,0.00,,FEW,0.00,483.00,VWS V14.01,2013-08-30 19:22:00,
2013-08-30 15:23:00,87.6,77.9,29.93,NE,38,2.0,4.0,73,0.00,,FEW,0.00,483.00,VWS V14.01,2013-08-30 19:23:00,
2013-08-30 15:25:00,87.5,77.8,29.93,NNE,27,2.0,4.0,73,0.00,,FEW,0.00,585.00,VWS V14.01,2013-08-30 19:25:00,
2013-08-30 15:27:00,87.6,77.9,29.93,NNE,28,1.0,4.0,73,0.00,,FEW,0.00,459.00,VWS V14.01,2013-08-30 19:27:00,
2013-08-30 15:28:00,87.7,78.0,29.93,North,349,2.0,4.0,73,0.00,,FEW,0.00,461.00,VWS V14.01,2013-08-30 19:28:00,
2013-08-30 15:30:00,87.5,77.4,29.93,North,355,1.0,4.0,72,0.00,,FEW,0.00,547.00,VWS V14.01,2013-08-30 19:30:00,
2013-08-30 15:32:00,87.3,77.2,29.93,North,5,3.0,4.0,72,0.00,,FEW,0.00,575.00,VWS V14.01,2013-08-30 19:32:00,
2013-08-30 15:33:00,87.3,77.6,29.94,North,355,0.0,4.0,73,0.00,,FEW,0.00,594.00,VWS V14.01,2013-08-30 19:33:00,
2013-08-30 15:34:00,87.1,77.0,29.94,North,355,0.0,1.0,72,0.00,,FEW,0.00,661.00,VWS V14.01,2013-08-30 19:34:00,
2013-08-30 15:35:00,87.2,77.9,29.94,NNW,346,4.0,4.0,74,0.00,,FEW,0.00,504.00,VWS V14.01,2013-08-30 19:35:00,
2013-08-30 15:36:00,87.3,78.0,29.94,NNW,344,3.0,4.0,74,0.00,,FEW,0.00,504.00,VWS V14.01,2013-08-30 19:36:00,
2013-08-30 15:37:00,87.4,77.7,29.94,North,355,1.0,4.0,73,0.00,,FEW,0.00,450.00,VWS V14.01,2013-08-30 19:37:00,
2013-08-30 15:38:00,87.5,77.8,29.94,North,355,0.0,4.0,73,0.00,,FEW,0.00,496.00,VWS V14.01,2013-08-30 19:38:00,
2013-08-30 15:39:00,87.8,78.1,29.94,NNE,26,2.0,4.0,73,0.00,,FEW,0.00,410.00,VWS V14.01,2013-08-30 19:39:00,
2013-08-30 15:41:00,87.9,78.2,29.94,NNE,26,0.0,4.0,73,0.00,,FEW,0.00,394.00,VWS V14.01,2013-08-30 19:41:00,
2013-08-30 15:42:00,87.8,77.2,29.94,NNE,26,1.0,4.0,71,0.00,,FEW,0.00,392.00,VWS V14.01,2013-08-30 19:42:00,
2013-08-30 15:43:00,87.7,77.1,29.94,NNE,26,0.0,4.0,71,0.00,,FEW,0.00,390.00,VWS V14.01,2013-08-30 19:43:00,
2013-08-30 15:45:00,87.7,78.0,29.94,NNE,26,1.0,2.0,73,0.00,,FEW,0.00,399.00,VWS V14.01,2013-08-30 19:45:00,
2013-08-30 15:46:00,87.7,78.0,29.94,NNE,26,0.0,2.0,73,0.00,,FEW,0.00,399.00,VWS V14.01,2013-08-30 19:46:00,
2013-08-30 15:47:00,87.8,78.1,29.94,NNE,26,2.0,3.0,73,0.00,,FEW,0.00,422.00,VWS V14.01,2013-08-30 19:47:00,
2013-08-30 15:48:00,87.8,78.1,29.93,NNE,26,1.0,3.0,73,0.00,,FEW,0.00,436.00,VWS V14.01,2013-08-30 19:48:00,
2013-08-30 15:51:00,87.9,78.2,29.93,NE,38,2.0,3.0,73,0.00,,FEW,0.00,364.00,VWS V14.01,2013-08-30 19:51:00,
2013-08-30 15:52:00,87.9,78.2,29.93,NE,43,4.0,4.0,73,0.00,,FEW,0.00,357.00,VWS V14.01,2013-08-30 19:52:00,
2013-08-30 15:53:00,87.9,78.2,29.93,NE,42,1.0,4.0,73,0.00,,FEW,0.00,362.00,VWS V14.01,2013-08-30 19:53:00,
2013-08-30 15:56:00,88.0,78.3,29.93,NE,42,0.0,3.0,73,0.00,,FEW,0.00,410.00,VWS V14.01,2013-08-30 19:56:00,
2013-08-30 15:57:00,88.0,78.3,29.93,NE,44,1.0,3.0,73,0.00,,FEW,0.00,371.00,VWS V14.01,2013-08-30 19:57:00,
2013-08-30 15:58:00,88.1,78.4,29.93,NE,44,0.0,3.0,73,0.00,,FEW,0.00,338.00,VWS V14.01,2013-08-30 19:58:00,
2013-08-30 16:01:00,88.1,78.4,29.93,NNE,30,1.0,3.0,73,0.00,,FEW,0.00,338.00,VWS V14.01,2013-08-30 20:01:00,
2013-08-30 16:03:00,87.9,78.2,29.92,NNE,30,0.0,3.0,73,0.00,,FEW,0.00,417.00,VWS V14.01,2013-08-30 20:03:00,
2013-08-30 16:06:00,87.7,78.4,29.92,ESE,117,2.0,4.0,74,0.00,,FEW,0.00,874.00,VWS V14.01,2013-08-30 20:06:00,
2013-08-30 16:08:00,87.7,78.8,29.92,ESE,116,3.0,6.0,75,0.00,,FEW,0.00,874.00,VWS V14.01,2013-08-30 20:08:00,
2013-08-30 16:11:00,87.7,78.8,29.92,ESE,115,1.0,6.0,75,0.00,,FEW,0.00,244.00,VWS V14.01,2013-08-30 20:11:00,
2013-08-30 16:13:00,87.8,78.9,29.92,ESE,121,1.0,1.0,75,0.00,,FEW,0.00,237.00,VWS V14.01,2013-08-30 20:13:00,
2013-08-30 16:14:00,87.8,78.9,29.92,SE,144,1.0,3.0,75,0.00,,FEW,0.00,229.00,VWS V14.01,2013-08-30 20:14:00,
2013-08-30 16:16:00,87.5,78.6,29.92,SE,135,4.0,4.0,75,0.00,,FEW,0.00,345.00,VWS V14.01,2013-08-30 20:16:00,
2013-08-30 16:17:00,87.5,78.6,29.92,SE,126,3.0,4.0,75,0.00,,FEW,0.00,345.00,VWS V14.01,2013-08-30 20:17:00,
2013-08-30 16:18:00,87.3,78.4,29.92,SE,144,2.0,5.0,75,0.00,,FEW,0.00,320.00,VWS V14.01,2013-08-30 20:18:00,
2013-08-30 16:19:00,87.2,78.3,29.92,SE,130,3.0,5.0,75,0.00,,FEW,0.00,373.00,VWS V14.01,2013-08-30 20:19:00,
2013-08-30 16:22:00,86.9,78.4,29.92,ESE,116,1.0,5.0,76,0.00,,FEW,0.00,341.00,VWS V14.01,2013-08-30 20:22:00,
2013-08-30 16:23:00,86.8,78.3,29.92,ESE,109,4.0,4.0,76,0.00,,FEW,0.00,322.00,VWS V14.01,2013-08-30 20:23:00,
2013-08-30 16:24:00,86.8,78.3,29.92,SE,124,1.0,4.0,76,0.00,,FEW,0.00,322.00,VWS V14.01,2013-08-30 20:24:00,
2013-08-30 16:27:00,86.7,78.2,29.92,ESE,118,1.0,8.0,76,0.00,,FEW,0.00,754.00,VWS V14.01,2013-08-30 20:27:00,
2013-08-30 16:28:00,87.1,79.0,29.92,East,96,3.0,8.0,77,0.00,,FEW,0.00,752.00,VWS V14.01,2013-08-30 20:28:00,
2013-08-30 16:29:00,87.2,78.7,29.92,ESE,120,4.0,8.0,76,0.00,,FEW,0.00,752.00,VWS V14.01,2013-08-30 20:29:00,
2013-08-30 16:32:00,87.5,78.6,29.92,SE,139,0.0,8.0,75,0.00,,FEW,0.00,701.00,VWS V14.01,2013-08-30 20:32:00,
2013-08-30 16:33:00,87.6,78.7,29.92,East,94,1.0,8.0,75,0.00,,FEW,0.00,701.00,VWS V14.01,2013-08-30 20:33:00,
2013-08-30 16:34:00,87.8,79.3,29.92,SE,130,3.0,3.0,76,0.00,,FEW,0.00,698.00,VWS V14.01,2013-08-30 20:34:00,
2013-08-30 16:36:00,87.7,78.4,29.92,East,87,8.0,9.0,74,0.00,,FEW,0.00,691.00,VWS V14.01,2013-08-30 20:36:00,
2013-08-30 16:37:00,87.7,78.4,29.92,SE,135,1.0,9.0,74,0.00,,FEW,0.00,694.00,VWS V14.01,2013-08-30 20:37:00,
2013-08-30 16:38:00,87.7,78.8,29.92,East,84,1.0,9.0,75,0.00,,FEW,0.00,708.00,VWS V14.01,2013-08-30 20:38:00,
2013-08-30 16:39:00,87.9,79.0,29.92,ESE,121,1.0,9.0,75,0.00,,FEW,0.00,714.00,VWS V14.01,2013-08-30 20:39:00,
2013-08-30 16:40:00,87.9,78.6,29.92,ENE,68,3.0,9.0,74,0.00,,FEW,0.00,724.00,VWS V14.01,2013-08-30 20:40:00,
2013-08-30 16:41:00,88.1,79.2,29.92,ESE,117,3.0,9.0,75,0.00,,FEW,0.00,724.00,VWS V14.01,2013-08-30 20:41:00,
2013-08-30 16:42:00,88.3,79.0,29.92,ENE,63,1.0,9.0,74,0.00,,FEW,0.00,230.00,VWS V14.01,2013-08-30 20:42:00,
2013-08-30 16:43:00,88.4,79.1,29.92,ESE,111,3.0,9.0,74,0.00,,FEW,0.00,239.00,VWS V14.01,2013-08-30 20:43:00,
2013-08-30 16:44:00,88.5,79.2,29.92,ESE,114,2.0,3.0,74,0.00,,FEW,0.00,239.00,VWS V14.01,2013-08-30 20:44:00,
2013-08-30 16:45:00,88.5,79.2,29.92,ESE,123,1.0,5.0,74,0.00,,FEW,0.00,239.00,VWS V14.01,2013-08-30 20:45:00,
2013-08-30 16:46:00,88.5,79.2,29.92,East,94,0.0,6.0,74,0.00,,FEW,0.00,281.00,VWS V14.01,2013-08-30 20:46:00,
2013-08-30 16:47:00,88.6,79.2,29.92,East,94,0.0,6.0,74,0.00,,FEW,0.00,229.00,VWS V14.01,2013-08-30 20:47:00,
2013-08-30 16:48:00,88.7,79.3,29.92,ESE,103,0.0,6.0,74,0.00,,FEW,0.00,209.00,VWS V14.01,2013-08-30 20:48:00,
2013-08-30 16:49:00,88.7,79.3,29.92,SE,126,2.0,6.0,74,0.00,,FEW,0.00,209.00,VWS V14.01,2013-08-30 20:49:00,
2013-08-30 16:50:00,88.7,79.3,29.92,ESE,117,2.0,6.0,74,0.00,,FEW,0.00,174.00,VWS V14.01,2013-08-30 20:50:00,
2013-08-30 16:52:00,88.6,79.2,29.92,ENE,77,2.0,6.0,74,0.00,,FEW,0.00,183.00,VWS V14.01,2013-08-30 20:52:00,
2013-08-30 16:54:00,88.3,78.6,29.92,East,92,2.0,3.0,73,0.00,,FEW,0.00,183.00,VWS V14.01,2013-08-30 20:54:00,
2013-08-30 16:55:00,87.9,78.6,29.92,East,96,3.0,3.0,74,0.00,,FEW,0.00,621.00,VWS V14.01,2013-08-30 20:55:00,
2013-08-30 16:57:00,87.7,78.8,29.92,ESE,106,2.0,5.0,75,0.00,,FEW,0.00,577.00,VWS V14.01,2013-08-30 20:57:00,
2013-08-30 16:59:00,87.4,78.5,29.92,SE,132,3.0,6.0,75,0.00,,FEW,0.00,605.00,VWS V14.01,2013-08-30 20:59:00,
2013-08-30 17:00:00,87.4,78.5,29.92,East,86,0.0,6.0,75,0.00,,FEW,0.00,149.00,VWS V14.01,2013-08-30 21:00:00,
2013-08-30 17:02:00,87.4,78.5,29.91,East,94,0.0,6.0,75,0.00,,FEW,0.00,206.00,VWS V14.01,2013-08-30 21:02:00,
2013-08-30 17:04:00,87.4,78.5,29.91,ESE,116,1.0,4.0,75,0.00,,FEW,0.00,264.00,VWS V14.01,2013-08-30 21:04:00,
2013-08-30 17:06:00,87.3,78.8,29.91,SE,132,4.0,4.0,76,0.00,,FEW,0.00,232.00,VWS V14.01,2013-08-30 21:06:00,
2013-08-30 17:07:00,87.2,78.7,29.91,SE,139,2.0,4.0,76,0.00,,FEW,0.00,520.00,VWS V14.01,2013-08-30 21:07:00,
2013-08-30 17:08:00,87.2,78.7,29.91,SE,139,1.0,4.0,76,0.00,,FEW,0.00,520.00,VWS V14.01,2013-08-30 21:08:00,
2013-08-30 17:09:00,87.1,78.6,29.91,ESE,111,2.0,4.0,76,0.00,,FEW,0.00,543.00,VWS V14.01,2013-08-30 21:09:00,
2013-08-30 17:10:00,87.1,78.6,29.91,ENE,74,0.0,4.0,76,0.00,,FEW,0.00,575.00,VWS V14.01,2013-08-30 21:10:00,
2013-08-30 17:11:00,87.2,78.7,29.91,SE,127,1.0,4.0,76,0.00,,FEW,0.00,575.00,VWS V14.01,2013-08-30 21:11:00,
2013-08-30 17:12:00,87.2,79.1,29.91,SE,127,0.0,4.0,77,0.00,,FEW,0.00,524.00,VWS V14.01,2013-08-30 21:12:00,
2013-08-30 17:14:00,87.3,79.2,29.91,ESE,117,2.0,3.0,77,0.00,,FEW,0.00,308.00,VWS V14.01,2013-08-30 21:14:00,
2013-08-30 17:15:00,87.3,78.8,29.91,SE,143,2.0,4.0,76,0.00,,FEW,0.00,308.00,VWS V14.01,2013-08-30 21:15:00,
2013-08-30 17:16:00,87.3,78.8,29.91,SE,140,2.0,4.0,76,0.00,,FEW,0.00,348.00,VWS V14.01,2013-08-30 21:16:00,
2013-08-30 17:17:00,87.3,78.8,29.91,SE,140,3.0,4.0,76,0.00,,FEW,0.00,234.00,VWS V14.01,2013-08-30 21:17:00,
2013-08-30 17:19:00,87.3,78.8,29.91,SE,133,1.0,4.0,76,0.00,,FEW,0.00,209.00,VWS V14.01,2013-08-30 21:19:00,
2013-08-30 17:20:00,87.3,78.8,29.91,SE,134,2.0,4.0,76,0.00,,FEW,0.00,213.00,VWS V14.01,2013-08-30 21:20:00,
2013-08-30 17:21:00,87.3,78.8,29.91,SE,128,0.0,4.0,76,0.00,,FEW,0.00,241.00,VWS V14.01,2013-08-30 21:21:00,
2013-08-30 17:22:00,87.4,78.9,29.91,East,94,2.0,4.0,76,0.00,,FEW,0.00,230.00,VWS V14.01,2013-08-30 21:22:00,
2013-08-30 17:23:00,87.3,78.8,29.91,East,92,3.0,4.0,76,0.00,,FEW,0.00,158.00,VWS V14.01,2013-08-30 21:23:00,
2013-08-30 17:24:00,87.3,78.8,29.91,ESE,121,3.0,5.0,76,0.00,,FEW,0.00,158.00,VWS V14.01,2013-08-30 21:24:00,
2013-08-30 17:25:00,87.3,78.8,29.91,ESE,111,1.0,5.0,76,0.00,,FEW,0.00,167.00,VWS V14.01,2013-08-30 21:25:00,
2013-08-30 17:26:00,87.3,78.8,29.91,ESE,117,4.0,5.0,76,0.00,,FEW,0.00,169.00,VWS V14.01,2013-08-30 21:26:00,
2013-08-30 17:27:00,87.3,78.8,29.91,ESE,119,2.0,5.0,76,0.00,,FEW,0.00,169.00,VWS V14.01,2013-08-30 21:27:00,
2013-08-30 17:28:00,87.2,78.7,29.91,East,96,1.0,5.0,76,0.00,,FEW,0.00,155.00,VWS V14.01,2013-08-30 21:28:00,
2013-08-30 17:29:00,87.2,78.7,29.91,SE,136,2.0,5.0,76,0.00,,FEW,0.00,151.00,VWS V14.01,2013-08-30 21:29:00,
2013-08-30 17:30:00,87.1,78.6,29.91,SE,146,2.0,5.0,76,0.00,,FEW,0.00,151.00,VWS V14.01,2013-08-30 21:30:00,
2013-08-30 17:31:00,87.0,78.5,29.91,SE,134,2.0,5.0,76,0.00,,FEW,0.00,202.00,VWS V14.01,2013-08-30 21:31:00,
2013-08-30 17:32:00,87.0,78.5,29.91,SE,141,5.0,5.0,76,0.00,,FEW,0.00,202.00,VWS V14.01,2013-08-30 21:32:00,
2013-08-30 17:33:00,86.9,78.4,29.91,SE,134,1.0,5.0,76,0.00,,FEW,0.00,206.00,VWS V14.01,2013-08-30 21:33:00,
2013-08-30 17:35:00,86.8,78.7,29.91,ESE,105,0.0,4.0,77,0.00,,FEW,0.00,190.00,VWS V14.01,2013-08-30 21:35:00,
2013-08-30 17:37:00,86.5,78.4,29.91,SE,128,2.0,5.0,77,0.00,,FEW,0.00,446.00,VWS V14.01,2013-08-30 21:37:00,
2013-08-30 17:38:00,86.5,78.4,29.91,SE,136,4.0,5.0,77,0.00,,FEW,0.00,432.00,VWS V14.01,2013-08-30 21:38:00,
2013-08-30 17:40:00,86.2,78.2,29.91,East,92,0.0,6.0,77,0.00,,FEW,0.00,429.00,VWS V14.01,2013-08-30 21:40:00,
2013-08-30 17:42:00,86.3,78.2,29.91,East,99,2.0,6.0,77,0.00,,FEW,0.00,128.00,VWS V14.01,2013-08-30 21:42:00,
2013-08-30 17:43:00,86.4,78.3,29.91,ESE,122,0.0,6.0,77,0.00,,FEW,0.00,123.00,VWS V14.01,2013-08-30 21:43:00,
2013-08-30 17:44:00,86.4,78.3,29.91,ESE,119,1.0,1.0,77,0.00,,FEW,0.00,125.00,VWS V14.01,2013-08-30 21:44:00,
2013-08-30 17:45:00,86.5,78.4,29.91,SE,131,1.0,3.0,77,0.00,,FEW,0.00,135.00,VWS V14.01,2013-08-30 21:45:00,
2013-08-30 17:47:00,86.5,78.4,29.91,East,90,2.0,4.0,77,0.00,,FEW,0.00,155.00,VWS V14.01,2013-08-30 21:47:00,
2013-08-30 17:48:00,86.5,78.4,29.91,SE,141,1.0,5.0,77,0.00,,FEW,0.00,155.00,VWS V14.01,2013-08-30 21:48:00,
2013-08-30 17:49:00,86.4,78.3,29.91,East,98,1.0,5.0,77,0.00,,FEW,0.00,385.00,VWS V14.01,2013-08-30 21:49:00,
2013-08-30 17:50:00,86.4,78.3,29.91,ESE,117,2.0,5.0,77,0.00,,FEW,0.00,373.00,VWS V14.01,2013-08-30 21:50:00,
2013-08-30 17:51:00,86.4,78.3,29.91,East,81,3.0,5.0,77,0.00,,FEW,0.00,345.00,VWS V14.01,2013-08-30 21:51:00,
2013-08-30 17:52:00,86.4,78.3,29.91,ESE,117,3.0,5.0,77,0.00,,FEW,0.00,290.00,VWS V14.01,2013-08-30 21:52:00,
2013-08-30 17:53:00,86.3,78.2,29.91,East,84,2.0,6.0,77,0.00,,FEW,0.00,290.00,VWS V14.01,2013-08-30 21:53:00,
2013-08-30 17:54:00,86.3,78.2,29.91,East,92,1.0,6.0,77,0.00,,FEW,0.00,301.00,VWS V14.01,2013-08-30 21:54:00,
2013-08-30 17:55:00,86.3,78.2,29.91,ESE,123,1.0,6.0,77,0.00,,FEW,0.00,301.00,VWS V14.01,2013-08-30 21:55:00,
2013-08-30 17:56:00,86.4,78.3,29.91,East,100,0.0,6.0,77,0.00,,FEW,0.00,311.00,VWS V14.01,2013-08-30 21:56:00,
2013-08-30 17:58:00,86.4,78.3,29.91,ESE,117,3.0,6.0,77,0.00,,FEW,0.00,216.00,VWS V14.01,2013-08-30 21:58:00,
2013-08-30 17:59:00,86.4,78.3,29.91,ESE,103,0.0,6.0,77,0.00,,FEW,0.00,216.00,VWS V14.01,2013-08-30 21:59:00,
2013-08-30 18:00:00,86.5,78.4,29.91,SE,136,3.0,6.0,77,0.00,,FEW,0.00,163.00,VWS V14.01,2013-08-30 22:00:00,
2013-08-30 18:01:00,86.4,78.3,29.91,ESE,112,1.0,6.0,77,0.00,,FEW,0.00,348.00,VWS V14.01,2013-08-30 22:01:00,
2013-08-30 18:03:00,86.3,78.2,29.91,SE,134,2.0,2.0,77,0.00,,FEW,0.00,334.00,VWS V14.01,2013-08-30 22:03:00,
2013-08-30 18:04:00,86.3,78.6,29.91,ESE,106,2.0,3.0,78,0.00,,FEW,0.00,334.00,VWS V14.01,2013-08-30 22:04:00,
2013-08-30 18:05:00,86.3,78.6,29.91,ESE,107,1.0,3.0,78,0.00,,FEW,0.00,334.00,VWS V14.01,2013-08-30 22:05:00,
2013-08-30 18:06:00,86.2,78.5,29.91,SE,129,2.0,3.0,78,0.00,,FEW,0.00,329.00,VWS V14.01,2013-08-30 22:06:00,
2013-08-30 18:09:00,86.2,78.5,29.91,East,85,0.0,4.0,78,0.00,,FEW,0.00,308.00,VWS V14.01,2013-08-30 22:09:00,
2013-08-30 18:10:00,86.2,78.2,29.91,SE,130,1.0,4.0,77,0.00,,FEW,0.00,304.00,VWS V14.01,2013-08-30 22:10:00,
2013-08-30 18:11:00,86.2,78.2,29.91,ESE,117,1.0,4.0,77,0.00,,FEW,0.00,299.00,VWS V14.01,2013-08-30 22:11:00,
2013-08-30 18:14:00,86.2,78.2,29.91,SE,127,1.0,3.0,77,0.00,,FEW,0.00,288.00,VWS V14.01,2013-08-30 22:14:00,
2013-08-30 18:15:00,86.1,78.1,29.91,East,100,1.0,3.0,77,0.00,,FEW,0.00,287.00,VWS V14.01,2013-08-30 22:15:00,
2013-08-30 18:16:00,86.2,78.2,29.91,East,100,0.0,3.0,77,0.00,,FEW,0.00,278.00,VWS V14.01,2013-08-30 22:16:00,
2013-08-30 18:17:00,86.3,78.2,29.91,East,81,0.0,3.0,77,0.00,,FEW,0.00,272.00,VWS V14.01,2013-08-30 22:17:00,
2013-08-30 18:19:00,86.4,78.3,29.91,ESE,113,0.0,3.0,77,0.00,,FEW,0.00,267.00,VWS V14.01,2013-08-30 22:19:00,
2013-08-30 18:20:00,86.5,78.4,29.91,ESE,113,0.0,3.0,77,0.00,,FEW,0.00,262.00,VWS V14.01,2013-08-30 22:20:00,
2013-08-30 18:21:00,86.6,78.5,29.91,East,92,2.0,3.0,77,0.00,,FEW,0.00,262.00,VWS V14.01,2013-08-30 22:21:00,
2013-08-30 18:22:00,86.7,78.2,29.91,ESE,114,2.0,3.0,76,0.00,,FEW,0.00,250.00,VWS V14.01,2013-08-30 22:22:00,
2013-08-30 18:24:00,86.5,78.0,29.91,ENE,61,2.0,4.0,76,0.00,,FEW,0.00,257.00,VWS V14.01,2013-08-30 22:24:00,
2013-08-30 18:25:00,86.5,78.0,29.91,SE,128,3.0,4.0,76,0.00,,FEW,0.00,251.00,VWS V14.01,2013-08-30 22:25:00,
2013-08-30 18:26:00,86.4,77.9,29.91,SE,125,2.0,4.0,76,0.00,,FEW,0.00,244.00,VWS V14.01,2013-08-30 22:26:00,
2013-08-30 18:28:00,86.3,77.8,29.91,ESE,123,1.0,4.0,76,0.00,,FEW,0.00,236.00,VWS V14.01,2013-08-30 22:28:00,
2013-08-30 18:29:00,86.2,77.8,29.91,SE,124,3.0,4.0,76,0.00,,FEW,0.00,225.00,VWS V14.01,2013-08-30 22:29:00,
2013-08-30 18:30:00,86.1,77.7,29.91,ESE,115,2.0,4.0,76,0.00,,FEW,0.00,221.00,VWS V14.01,2013-08-30 22:30:00,
2013-08-30 18:31:00,86.1,77.7,29.91,ESE,115,0.0,4.0,76,0.00,,FEW,0.00,218.00,VWS V14.01,2013-08-30 22:31:00,
2013-08-30 18:32:00,86.1,77.7,29.91,ESE,115,1.0,4.0,76,0.00,,FEW,0.00,213.00,VWS V14.01,2013-08-30 22:32:00,
2013-08-30 18:33:00,86.0,77.6,29.91,East,87,2.0,4.0,76,0.00,,FEW,0.00,207.00,VWS V14.01,2013-08-30 22:33:00,
2013-08-30 18:35:00,86.1,78.1,29.91,ESE,122,1.0,2.0,77,0.00,,FEW,0.00,199.00,VWS V14.01,2013-08-30 22:35:00,
2013-08-30 18:36:00,86.1,78.1,29.91,SE,132,2.0,5.0,77,0.00,,FEW,0.00,195.00,VWS V14.01,2013-08-30 22:36:00,
2013-08-30 18:37:00,86.2,78.2,29.91,East,79,0.0,5.0,77,0.00,,FEW,0.00,193.00,VWS V14.01,2013-08-30 22:37:00,
2013-08-30 18:39:00,86.1,77.7,29.91,East,94,1.0,5.0,76,0.00,,FEW,0.00,188.00,VWS V14.01,2013-08-30 22:39:00,
2013-08-30 18:40:00,86.1,78.1,29.91,ESE,119,3.0,5.0,77,0.00,,FEW,0.00,185.00,VWS V14.01,2013-08-30 22:40:00,
2013-08-30 18:41:00,86.0,77.9,29.91,South,178,3.0,5.0,77,0.00,,FEW,0.00,181.00,VWS V14.01,2013-08-30 22:41:00,
2013-08-30 18:42:00,86.0,77.6,29.91,SE,132,2.0,5.0,76,0.00,,FEW,0.00,178.00,VWS V14.01,2013-08-30 22:42:00,
2013-08-30 18:44:00,86.0,77.6,29.91,SE,130,3.0,3.0,76,0.00,,FEW,0.00,169.00,VWS V14.01,2013-08-30 22:44:00,
2013-08-30 18:45:00,85.9,77.5,29.91,SE,130,0.0,3.0,76,0.00,,FEW,0.00,165.00,VWS V14.01,2013-08-30 22:45:00,
2013-08-30 18:46:00,85.9,77.5,29.91,SE,140,4.0,4.0,76,0.00,,FEW,0.00,135.00,VWS V14.01,2013-08-30 22:46:00,
2013-08-30 18:47:00,85.9,77.5,29.91,SSE,147,2.0,5.0,76,0.00,,FEW,0.00,135.00,VWS V14.01,2013-08-30 22:47:00,
2013-08-30 18:49:00,85.9,77.5,29.91,SE,126,2.0,5.0,76,0.00,,FEW,0.00,142.00,VWS V14.01,2013-08-30 22:49:00,
2013-08-30 18:50:00,85.9,77.5,29.91,SE,127,1.0,5.0,76,0.00,,FEW,0.00,144.00,VWS V14.01,2013-08-30 22:50:00,
2013-08-30 18:51:00,85.9,77.5,29.91,East,100,3.0,5.0,76,0.00,,FEW,0.00,141.00,VWS V14.01,2013-08-30 22:51:00,
2013-08-30 18:52:00,85.9,77.5,29.91,ESE,109,4.0,5.0,76,0.00,,FEW,0.00,135.00,VWS V14.01,2013-08-30 22:52:00,
2013-08-30 18:54:00,85.9,77.5,29.91,SE,126,0.0,2.0,76,0.00,,FEW,0.00,128.00,VWS V14.01,2013-08-30 22:54:00,
2013-08-30 18:56:00,85.9,77.5,29.91,ESE,121,1.0,3.0,76,0.00,,FEW,0.00,121.00,VWS V14.01,2013-08-30 22:56:00,
2013-08-30 18:57:00,85.9,77.5,29.91,SE,137,4.0,4.0,76,0.00,,FEW,0.00,118.00,VWS V14.01,2013-08-30 22:57:00,
2013-08-30 18:59:00,86.0,77.6,29.91,ESE,113,0.0,4.0,76,0.00,,FEW,0.00,107.00,VWS V14.01,2013-08-30 22:59:00,
2013-08-30 19:01:00,85.9,77.5,29.91,SE,126,1.0,4.0,76,0.00,,FEW,0.00,104.00,VWS V14.01,2013-08-30 23:01:00,
2013-08-30 19:02:00,85.9,77.5,29.91,SE,126,1.0,4.0,76,0.00,,FEW,0.00,97.00,VWS V14.01,2013-08-30 23:02:00,
2013-08-30 19:03:00,85.9,77.5,29.91,SE,130,3.0,4.0,76,0.00,,FEW,0.00,97.00,VWS V14.01,2013-08-30 23:03:00,
2013-08-30 19:04:00,85.9,77.5,29.91,SSE,159,2.0,4.0,76,0.00,,FEW,0.00,90.00,VWS V14.01,2013-08-30 23:04:00,
2013-08-30 19:06:00,85.8,77.4,29.91,SE,146,2.0,4.0,76,0.00,,FEW,0.00,30.00,VWS V14.01,2013-08-30 23:06:00,
2013-08-30 19:07:00,85.7,77.3,29.91,SSE,158,2.0,4.0,76,0.00,,FEW,0.00,44.00,VWS V14.01,2013-08-30 23:07:00,
2013-08-30 19:08:00,85.7,77.3,29.91,SSE,157,2.0,4.0,76,0.00,,FEW,0.00,44.00,VWS V14.01,2013-08-30 23:08:00,
2013-08-30 19:09:00,85.7,77.3,29.91,SE,138,2.0,4.0,76,0.00,,FEW,0.00,23.00,VWS V14.01,2013-08-30 23:09:00,
2013-08-30 19:10:00,85.6,77.2,29.91,SE,143,2.0,4.0,76,0.00,,FEW,0.00,23.00,VWS V14.01,2013-08-30 23:10:00,
2013-08-30 19:11:00,85.5,77.1,29.91,ESE,111,2.0,4.0,76,0.00,,FEW,0.00,21.00,VWS V14.01,2013-08-30 23:11:00,
2013-08-30 19:13:00,85.4,77.0,29.91,ESE,120,0.0,4.0,76,0.00,,FEW,0.00,21.00,VWS V14.01,2013-08-30 23:13:00,
2013-08-30 19:15:00,85.3,76.9,29.91,SE,145,5.0,5.0,76,0.00,,FEW,0.00,18.00,VWS V14.01,2013-08-30 23:15:00,
2013-08-30 19:16:00,85.1,76.7,29.91,SE,135,1.0,5.0,76,0.00,,FEW,0.00,16.00,VWS V14.01,2013-08-30 23:16:00,
2013-08-30 19:18:00,85.0,76.6,29.92,SE,129,2.0,5.0,76,0.00,,FEW,0.00,16.00,VWS V14.01,2013-08-30 23:18:00,
2013-08-30 19:20:00,84.9,76.5,29.92,East,93,1.0,5.0,76,0.00,,FEW,0.00,14.00,VWS V14.01,2013-08-30 23:20:00,
2013-08-30 19:21:00,84.8,76.4,29.92,SE,138,0.0,5.0,76,0.00,,FEW,0.00,14.00,VWS V14.01,2013-08-30 23:21:00,
2013-08-30 19:23:00,84.7,76.3,29.92,ESE,118,2.0,5.0,76,0.00,,FEW,0.00,12.00,VWS V14.01,2013-08-30 23:23:00,
2013-08-30 19:24:00,84.6,76.2,29.92,ESE,118,0.0,2.0,76,0.00,,FEW,0.00,12.00,VWS V14.01,2013-08-30 23:24:00,
2013-08-30 19:25:00,84.5,75.7,29.92,ESE,123,2.0,3.0,75,0.00,,FEW,0.00,12.00,VWS V14.01,2013-08-30 23:25:00,
2013-08-30 19:26:00,84.5,76.1,29.92,East,100,1.0,3.0,76,0.00,,FEW,0.00,12.00,VWS V14.01,2013-08-30 23:26:00,
2013-08-30 19:28:00,84.4,75.6,29.92,SE,128,3.0,4.0,75,0.00,,FEW,0.00,11.00,VWS V14.01,2013-08-30 23:28:00,
2013-08-30 19:29:00,84.3,75.5,29.92,SE,139,3.0,4.0,75,0.00,,FEW,0.00,11.00,VWS V14.01,2013-08-30 23:29:00,
2013-08-30 19:31:00,84.1,75.3,29.92,ENE,78,4.0,4.0,75,0.00,,FEW,0.00,9.00,VWS V14.01,2013-08-30 23:31:00,
2013-08-30 19:32:00,84.1,74.9,29.92,ESE,120,3.0,4.0,74,0.00,,FEW,0.00,9.00,VWS V14.01,2013-08-30 23:32:00,
2013-08-30 19:33:00,84.0,74.8,29.92,SE,132,1.0,1.0,74,0.00,,FEW,0.00,9.00,VWS V14.01,2013-08-30 23:33:00,
2013-08-30 19:34:00,84.0,74.8,29.92,SE,132,0.0,1.0,74,0.00,,FEW,0.00,7.00,VWS V14.01,2013-08-30 23:34:00,
2013-08-30 19:36:00,83.9,75.1,29.92,SE,129,0.0,3.0,75,0.00,,FEW,0.00,7.00,VWS V14.01,2013-08-30 23:36:00,
2013-08-30 19:37:00,83.9,75.1,29.92,SE,129,0.0,3.0,75,0.00,,FEW,0.00,7.00,VWS V14.01,2013-08-30 23:37:00,
2013-08-30 19:38:00,83.9,74.7,29.92,East,93,1.0,3.0,74,0.00,,FEW,0.00,5.00,VWS V14.01,2013-08-30 23:38:00,
2013-08-30 19:39:00,83.8,74.6,29.92,ESE,122,0.0,3.0,74,0.00,,FEW,0.00,5.00,VWS V14.01,2013-08-30 23:39:00,
2013-08-30 19:41:00,83.8,74.6,29.92,SE,126,1.0,3.0,74,0.00,,FEW,0.00,5.00,VWS V14.01,2013-08-30 23:41:00,
2013-08-30 19:42:00,83.8,74.6,29.92,SE,126,0.0,3.0,74,0.00,,FEW,0.00,5.00,VWS V14.01,2013-08-30 23:42:00,
2013-08-30 19:43:00,83.7,74.5,29.92,ENE,70,2.0,2.0,74,0.00,,FEW,0.00,5.00,VWS V14.01,2013-08-30 23:43:00,
2013-08-30 19:45:00,83.6,74.4,29.92,SE,128,1.0,4.0,74,0.00,,FEW,0.00,0.00,VWS V14.01,2013-08-30 23:45:00,
2013-08-30 19:46:00,83.6,74.0,29.92,ESE,119,1.0,4.0,73,0.00,,FEW,0.00,0.00,VWS V14.01,2013-08-30 23:46:00,
2013-08-30 19:47:00,83.5,73.9,29.92,ESE,119,0.0,4.0,73,0.00,,FEW,0.00,0.00,VWS V14.01,2013-08-30 23:47:00,
2013-08-30 19:48:00,83.5,73.9,29.92,SE,134,0.0,4.0,73,0.00,,FEW,0.00,0.00,VWS V14.01,2013-08-30 23:48:00,
2013-08-30 19:50:00,83.4,73.8,29.92,SE,134,0.0,4.0,73,0.00,,FEW,0.00,0.00,VWS V14.01,2013-08-30 23:50:00,
2013-08-30 19:52:00,83.4,73.8,29.92,ESE,117,1.0,4.0,73,0.00,,FEW,0.00,0.00,VWS V14.01,2013-08-30 23:52:00,
2013-08-30 19:53:00,83.4,73.8,29.92,SE,126,0.0,2.0,73,0.00,,FEW,0.00,0.00,VWS V14.01,2013-08-30 23:53:00,
2013-08-30 19:56:00,83.3,73.8,29.92,SE,125,2.0,3.0,73,0.00,,FEW,0.00,0.00,VWS V14.01,2013-08-30 23:56:00,
2013-08-30 19:57:00,83.3,73.3,29.92,SE,125,2.0,3.0,72,0.00,,FEW,0.00,0.00,VWS V14.01,2013-08-30 23:57:00,
2013-08-30 19:58:00,83.3,73.8,29.92,SE,125,2.0,3.0,73,0.00,,FEW,0.00,0.00,VWS V14.01,2013-08-30 23:58:00,
2013-08-30 20:01:00,83.2,73.7,29.92,SE,142,2.0,4.0,73,0.00,,FEW,0.00,0.00,VWS V14.01,2013-08-31 00:01:00,
2013-08-30 20:02:00,83.3,73.8,29.92,SE,142,2.0,4.0,73,0.00,,FEW,0.00,0.00,VWS V14.01,2013-08-31 00:02:00,
2013-08-30 20:03:00,83.3,73.8,29.92,SSE,161,2.0,4.0,73,0.00,,FEW,0.00,0.00,VWS V14.01,2013-08-31 00:03:00,
2013-08-30 20:04:00,83.2,73.7,29.92,SSE,158,3.0,5.0,73,0.00,,FEW,0.00,0.00,VWS V14.01,2013-08-31 00:04:00,
2013-08-30 20:06:00,83.2,73.2,29.92,SSE,156,2.0,5.0,72,0.00,,FEW,0.00,0.00,VWS V14.01,2013-08-31 00:06:00,
2013-08-30 20:07:00,83.2,73.2,29.92,SSE,161,3.0,5.0,72,0.00,,FEW,0.00,0.00,VWS V14.01,2013-08-31 00:07:00,
2013-08-30 20:08:00,83.2,73.2,29.92,SSE,160,1.0,5.0,72,0.00,,FEW,0.00,0.00,VWS V14.01,2013-08-31 00:08:00,
2013-08-30 20:09:00,83.2,73.7,29.92,SE,132,1.0,5.0,73,0.00,,FEW,0.00,0.00,VWS V14.01,2013-08-31 00:09:00,
2013-08-30 20:11:00,83.1,73.1,29.92,SE,139,2.0,5.0,72,0.00,,FEW,0.00,0.00,VWS V14.01,2013-08-31 00:11:00,
2013-08-30 20:12:00,83.1,73.1,29.92,SE,138,2.0,5.0,72,0.00,,FEW,0.00,0.00,VWS V14.01,2013-08-31 00:12:00,
2013-08-30 20:13:00,83.1,73.1,29.92,SE,140,0.0,1.0,72,0.00,,FEW,0.00,0.00,VWS V14.01,2013-08-31 00:13:00,
2013-08-30 20:14:00,83.1,73.1,29.92,SE,140,1.0,1.0,72,0.00,,FEW,0.00,0.00,VWS V14.01,2013-08-31 00:14:00,
2013-08-30 20:17:00,83.1,73.1,29.93,SE,140,0.0,4.0,72,0.00,,FEW,0.00,0.00,VWS V14.01,2013-08-31 00:17:00,
2013-08-30 20:18:00,83.1,73.1,29.93,SE,139,0.0,4.0,72,0.00,,FEW,0.00,0.00,VWS V14.01,2013-08-31 00:18:00,
2013-08-30 20:19:00,83.1,73.1,29.93,SSE,159,0.0,4.0,72,0.00,,FEW,0.00,0.00,VWS V14.01,2013-08-31 00:19:00,
2013-08-30 20:22:00,83.1,73.6,29.93,SSE,159,0.0,4.0,73,0.00,,FEW,0.00,0.00,VWS V14.01,2013-08-31 00:22:00,
2013-08-30 20:23:00,83.1,73.6,29.93,SSE,150,2.0,5.0,73,0.00,,FEW,0.00,0.00,VWS V14.01,2013-08-31 00:23:00,
2013-08-30 20:24:00,83.2,73.7,29.93,SE,130,3.0,5.0,73,0.00,,FEW,0.00,0.00,VWS V14.01,2013-08-31 00:24:00,
2013-08-30 20:26:00,83.2,73.7,29.93,SE,136,4.0,5.0,73,0.00,,FEW,0.00,0.00,VWS V14.01,2013-08-31 00:26:00,
2013-08-30 20:27:00,83.1,73.6,29.93,SE,137,0.0,5.0,73,0.00,,FEW,0.00,0.00,VWS V14.01,2013-08-31 00:27:00,
2013-08-30 20:28:00,83.2,73.7,29.93,SE,139,2.0,5.0,73,0.00,,FEW,0.00,0.00,VWS V14.01,2013-08-31 00:28:00,
2013-08-30 20:29:00,83.2,73.7,29.93,SE,139,0.0,5.0,73,0.00,,FEW,0.00,0.00,VWS V14.01,2013-08-31 00:29:00,
2013-08-30 20:32:00,83.2,74.1,29.93,SE,139,0.0,5.0,74,0.00,,FEW,0.00,0.00,VWS V14.01,2013-08-31 00:32:00,
2013-08-30 20:34:00,83.2,74.1,29.93,SE,130,1.0,2.0,74,0.00,,FEW,0.00,0.00,VWS V14.01,2013-08-31 00:34:00,
2013-08-30 20:35:00,83.3,74.6,29.93,SE,126,1.0,4.0,75,0.00,,FEW,0.00,0.00,VWS V14.01,2013-08-31 00:35:00,
2013-08-30 20:37:00,83.3,74.9,29.93,SSE,163,0.0,4.0,76,0.00,,FEW,0.00,0.00,VWS V14.01,2013-08-31 00:37:00,
2013-08-30 20:38:00,83.3,74.9,29.93,SSE,163,0.0,4.0,76,0.00,,FEW,0.00,0.00,VWS V14.01,2013-08-31 00:38:00,
2013-08-30 20:39:00,83.3,74.9,29.93,SSE,163,0.0,4.0,76,0.00,,FEW,0.00,0.00,VWS V14.01,2013-08-31 00:39:00,
2013-08-30 20:40:00,83.3,74.9,29.93,South,185,1.0,4.0,76,0.00,,FEW,0.00,0.00,VWS V14.01,2013-08-31 00:40:00,
2013-08-30 20:42:00,83.3,74.9,29.93,South,179,0.0,4.0,76,0.00,,FEW,0.00,0.00,VWS V14.01,2013-08-31 00:42:00,
2013-08-30 20:43:00,83.4,75.4,29.93,SSE,167,2.0,4.0,77,0.00,,FEW,0.00,0.00,VWS V14.01,2013-08-31 00:43:00,
2013-08-30 20:44:00,83.4,75.4,29.93,SSE,161,1.0,3.0,77,0.00,,FEW,0.00,0.00,VWS V14.01,2013-08-31 00:44:00,
2013-08-30 20:46:00,83.4,75.4,29.93,SE,132,2.0,3.0,77,0.00,,FEW,0.00,0.00,VWS V14.01,2013-08-31 00:46:00,
2013-08-30 20:47:00,83.4,75.8,29.93,SSE,157,2.0,3.0,78,0.00,,FEW,0.00,0.00,VWS V14.01,2013-08-31 00:47:00,
2013-08-30 20:49:00,83.4,75.8,29.93,SSE,165,2.0,3.0,78,0.00,,FEW,0.00,0.00,VWS V14.01,2013-08-31 00:49:00,
2013-08-30 20:51:00,83.4,75.8,29.93,SE,142,1.0,3.0,78,0.00,,FEW,0.00,0.00,VWS V14.01,2013-08-31 00:51:00,
2013-08-30 20:52:00,83.4,75.8,29.93,SSE,148,1.0,4.0,78,0.00,,FEW,0.00,0.00,VWS V14.01,2013-08-31 00:52:00,
2013-08-30 20:54:00,83.4,75.8,29.93,SE,141,1.0,4.0,78,0.00,,FEW,0.00,0.00,VWS V14.01,2013-08-31 00:54:00,
2013-08-30 20:56:00,83.4,75.8,29.93,SSE,150,0.0,4.0,78,0.00,,FEW,0.00,0.00,VWS V14.01,2013-08-31 00:56:00,
2013-08-30 20:57:00,83.3,75.7,29.93,SSE,150,0.0,4.0,78,0.00,,FEW,0.00,0.00,VWS V14.01,2013-08-31 00:57:00,
2013-08-30 20:59:00,83.3,75.7,29.93,SE,146,2.0,4.0,78,0.00,,FEW,0.00,0.00,VWS V14.01,2013-08-31 00:59:00,
2013-08-30 21:03:00,83.2,75.6,29.93,SSE,148,0.0,4.0,78,0.00,,FEW,0.00,0.00,VWS V14.01,2013-08-31 01:03:00,
2013-08-30 21:04:00,83.2,75.6,29.93,SE,137,1.0,2.0,78,0.00,,FEW,0.00,0.00,VWS V14.01,2013-08-31 01:04:00,
2013-08-30 21:05:00,83.2,75.6,29.93,SE,137,1.0,2.0,78,0.00,,FEW,0.00,0.00,VWS V14.01,2013-08-31 01:05:00,
2013-08-30 21:08:00,83.2,76.0,29.93,SE,136,4.0,4.0,79,0.00,,FEW,0.00,0.00,VWS V14.01,2013-08-31 01:08:00,
2013-08-30 21:09:00,83.1,75.9,29.93,SSE,150,0.0,4.0,79,0.00,,FEW,0.00,0.00,VWS V14.01,2013-08-31 01:09:00,
2013-08-30 21:10:00,83.1,75.9,29.93,SSE,150,0.0,4.0,79,0.00,,FEW,0.00,0.00,VWS V14.01,2013-08-31 01:10:00,
2013-08-30 21:11:00,83.1,75.9,29.93,SSE,150,1.0,4.0,79,0.00,,FEW,0.00,0.00,VWS V14.01,2013-08-31 01:11:00,
2013-08-30 21:13:00,83.1,75.9,29.93,SE,140,0.0,4.0,79,0.00,,FEW,0.00,0.00,VWS V14.01,2013-08-31 01:13:00,
2013-08-30 21:14:00,83.1,75.9,29.93,SE,135,1.0,2.0,79,0.00,,FEW,0.00,0.00,VWS V14.01,2013-08-31 01:14:00,
2013-08-30 21:15:00,83.1,75.9,29.93,SE,142,1.0,2.0,79,0.00,,FEW,0.00,0.00,VWS V14.01,2013-08-31 01:15:00,
2013-08-30 21:16:00,83.1,75.9,29.93,SE,142,2.0,3.0,79,0.00,,FEW,0.00,0.00,VWS V14.01,2013-08-31 01:16:00,
2013-08-30 21:18:00,83.1,75.9,29.94,SSE,151,1.0,4.0,79,0.00,,FEW,0.00,0.00,VWS V14.01,2013-08-31 01:18:00,
2013-08-30 21:19:00,83.1,75.9,29.94,SE,127,2.0,4.0,79,0.00,,FEW,0.00,0.00,VWS V14.01,2013-08-31 01:19:00,
2013-08-30 21:20:00,83.1,75.9,29.94,ESE,107,2.0,5.0,79,0.00,,FEW,0.00,0.00,VWS V14.01,2013-08-31 01:20:00,
2013-08-30 21:21:00,83.1,75.9,29.94,ESE,107,1.0,5.0,79,0.00,,FEW,0.00,0.00,VWS V14.01,2013-08-31 01:21:00,
2013-08-30 21:23:00,83.0,75.8,29.94,SSE,159,2.0,5.0,79,0.00,,FEW,0.00,0.00,VWS V14.01,2013-08-31 01:23:00,
2013-08-30 21:24:00,83.0,75.8,29.94,SE,146,1.0,5.0,79,0.00,,FEW,0.00,0.00,VWS V14.01,2013-08-31 01:24:00,
2013-08-30 21:25:00,83.0,75.8,29.94,SSE,153,1.0,5.0,79,0.00,,FEW,0.00,0.00,VWS V14.01,2013-08-31 01:25:00,
2013-08-30 21:26:00,82.9,76.1,29.94,SE,140,0.0,5.0,80,0.00,,FEW,0.00,0.00,VWS V14.01,2013-08-31 01:26:00,
2013-08-30 21:28:00,83.0,76.2,29.94,SE,128,3.0,5.0,80,0.00,,FEW,0.00,0.00,VWS V14.01,2013-08-31 01:28:00,
2013-08-30 21:29:00,83.0,76.2,29.94,SE,142,5.0,5.0,80,0.00,,FEW,0.00,0.00,VWS V14.01,2013-08-31 01:29:00,
2013-08-30 21:30:00,83.0,76.2,29.94,SE,143,3.0,5.0,80,0.00,,FEW,0.00,0.00,VWS V14.01,2013-08-31 01:30:00,
2013-08-30 21:32:00,83.0,76.2,29.94,SE,137,0.0,5.0,80,0.00,,FEW,0.00,0.00,VWS V14.01,2013-08-31 01:32:00,
2013-08-30 21:33:00,83.0,76.2,29.94,SE,136,2.0,2.0,80,0.00,,FEW,0.00,0.00,VWS V14.01,2013-08-31 01:33:00,
2013-08-30 21:34:00,83.0,76.6,29.94,South,183,2.0,4.0,81,0.00,,FEW,0.00,0.00,VWS V14.01,2013-08-31 01:34:00,
2013-08-30 21:36:00,83.0,76.6,29.94,SSE,159,0.0,4.0,81,0.00,,FEW,0.00,0.00,VWS V14.01,2013-08-31 01:36:00,
2013-08-30 21:37:00,83.0,76.6,29.94,SSE,147,2.0,4.0,81,0.00,,FEW,0.00,0.00,VWS V14.01,2013-08-31 01:37:00,
2013-08-30 21:38:00,83.0,76.6,29.94,SE,141,0.0,4.0,81,0.00,,FEW,0.00,0.00,VWS V14.01,2013-08-31 01:38:00,
2013-08-30 21:39:00,83.0,76.6,29.94,SSW,193,0.0,4.0,81,0.00,,FEW,0.00,0.00,VWS V14.01,2013-08-31 01:39:00,
2013-08-30 21:40:00,83.0,76.6,29.94,SSW,195,1.0,4.0,81,0.00,,FEW,0.00,0.00,VWS V14.01,2013-08-31 01:40:00,
2013-08-30 21:41:00,82.9,76.5,29.94,SSE,163,1.0,4.0,81,0.00,,FEW,0.00,0.00,VWS V14.01,2013-08-31 01:41:00,
2013-08-30 21:42:00,82.9,76.5,29.94,SSE,156,1.0,4.0,81,0.00,,FEW,0.00,0.00,VWS V14.01,2013-08-31 01:42:00,
2013-08-30 21:43:00,82.9,76.5,29.94,SSE,154,1.0,2.0,81,0.00,,FEW,0.00,0.00,VWS V14.01,2013-08-31 01:43:00,
2013-08-30 21:45:00,82.9,76.5,29.94,SSE,148,3.0,3.0,81,0.00,,FEW,0.00,0.00,VWS V14.01,2013-08-31 01:45:00,
2013-08-30 21:46:00,82.8,76.4,29.94,SSE,157,1.0,4.0,81,0.00,,FEW,0.00,0.00,VWS V14.01,2013-08-31 01:46:00,
2013-08-30 21:47:00,82.8,76.4,29.94,SSE,157,1.0,4.0,81,0.00,,FEW,0.00,0.00,VWS V14.01,2013-08-31 01:47:00,
2013-08-30 21:48:00,82.8,76.4,29.94,SE,142,0.0,4.0,81,0.00,,FEW,0.00,0.00,VWS V14.01,2013-08-31 01:48:00,
2013-08-30 21:50:00,82.7,76.3,29.94,SSE,154,4.0,6.0,81,0.00,,FEW,0.00,0.00,VWS V14.01,2013-08-31 01:50:00,
2013-08-30 21:51:00,82.7,76.3,29.94,SSE,148,3.0,7.0,81,0.00,,FEW,0.00,0.00,VWS V14.01,2013-08-31 01:51:00,
2013-08-30 21:52:00,82.8,76.8,29.94,SSE,150,1.0,7.0,82,0.00,,FEW,0.00,0.00,VWS V14.01,2013-08-31 01:52:00,
2013-08-30 21:53:00,82.8,76.8,29.94,SE,128,3.0,3.0,82,0.00,,FEW,0.00,0.00,VWS V14.01,2013-08-31 01:53:00,
2013-08-30 21:54:00,82.8,76.8,29.94,SE,132,3.0,3.0,82,0.00,,FEW,0.00,0.00,VWS V14.01,2013-08-31 01:54:00,
2013-08-30 21:55:00,82.8,76.8,29.94,SE,135,1.0,5.0,82,0.00,,FEW,0.00,0.00,VWS V14.01,2013-08-31 01:55:00,
2013-08-30 21:56:00,82.8,76.8,29.94,SSE,160,2.0,5.0,82,0.00,,FEW,0.00,0.00,VWS V14.01,2013-08-31 01:56:00,
2013-08-30 21:58:00,82.9,77.2,29.94,SSE,153,1.0,5.0,83,0.00,,FEW,0.00,0.00,VWS V14.01,2013-08-31 01:58:00,
2013-08-30 21:59:00,82.9,77.2,29.94,SE,142,4.0,5.0,83,0.00,,FEW,0.00,0.00,VWS V14.01,2013-08-31 01:59:00,
2013-08-30 22:00:00,82.9,77.2,29.94,South,173,2.0,5.0,83,0.00,,FEW,0.00,0.00,VWS V14.01,2013-08-31 02:00:00,
2013-08-30 22:01:00,82.9,77.2,29.94,SE,145,1.0,5.0,83,0.00,,FEW,0.00,0.00,VWS V14.01,2013-08-31 02:01:00,
2013-08-30 22:03:00,82.9,77.2,29.94,ESE,119,2.0,2.0,83,0.00,,FEW,0.00,0.00,VWS V14.01,2013-08-31 02:03:00,
2013-08-30 22:04:00,82.9,77.2,29.94,SSE,148,4.0,4.0,83,0.00,,FEW,0.00,0.00,VWS V14.01,2013-08-31 02:04:00,
2013-08-30 22:05:00,82.9,77.2,29.94,SE,136,3.0,4.0,83,0.00,,FEW,0.00,0.00,VWS V14.01,2013-08-31 02:05:00,
2013-08-30 22:07:00,82.8,77.1,29.94,SSE,165,1.0,4.0,83,0.00,,FEW,0.00,0.00,VWS V14.01,2013-08-31 02:07:00,
2013-08-30 22:09:00,82.8,77.1,29.94,SSE,159,5.0,5.0,83,0.00,,FEW,0.00,0.00,VWS V14.01,2013-08-31 02:09:00,
2013-08-30 22:10:00,82.7,77.4,29.94,South,169,3.0,5.0,84,0.00,,FEW,0.00,0.00,VWS V14.01,2013-08-31 02:10:00,
2013-08-30 22:12:00,82.7,77.4,29.94,SSE,151,1.0,5.0,84,0.00,,FEW,0.00,0.00,VWS V14.01,2013-08-31 02:12:00,
2013-08-30 22:13:00,82.7,77.4,29.94,SSE,161,2.0,5.0,84,0.00,,FEW,0.00,0.00,VWS V14.01,2013-08-31 02:13:00,
2013-08-30 22:14:00,82.7,77.4,29.94,SE,132,4.0,5.0,84,0.00,,FEW,0.00,0.00,VWS V14.01,2013-08-31 02:14:00,
2013-08-30 22:15:00,82.7,77.4,29.94,ESE,109,4.0,5.0,84,0.00,,FEW,0.00,0.00,VWS V14.01,2013-08-31 02:15:00,
2013-08-30 22:16:00,82.6,77.3,29.94,South,184,0.0,5.0,84,0.00,,FEW,0.00,0.00,VWS V14.01,2013-08-31 02:16:00,
2013-08-30 22:17:00,82.6,77.3,29.94,SE,140,6.0,6.0,84,0.00,,FEW,0.00,0.00,VWS V14.01,2013-08-31 02:17:00,
2013-08-30 22:18:00,82.6,77.3,29.94,SE,141,4.0,6.0,84,0.00,,FEW,0.00,0.00,VWS V14.01,2013-08-31 02:18:00,
2013-08-30 22:19:00,82.5,77.2,29.94,SSE,163,1.0,6.0,84,0.00,,FEW,0.00,0.00,VWS V14.01,2013-08-31 02:19:00,
2013-08-30 22:20:00,82.5,77.2,29.94,SE,127,3.0,6.0,84,0.00,,FEW,0.00,0.00,VWS V14.01,2013-08-31 02:20:00,
2013-08-30 22:21:00,82.5,77.2,29.94,SE,141,1.0,6.0,84,0.00,,FEW,0.00,0.00,VWS V14.01,2013-08-31 02:21:00,
2013-08-30 22:22:00,82.5,77.2,29.94,SSE,149,0.0,6.0,84,0.00,,FEW,0.00,0.00,VWS V14.01,2013-08-31 02:22:00,
2013-08-30 22:23:00,82.5,77.2,29.94,SSE,149,1.0,6.0,84,0.00,,FEW,0.00,0.00,VWS V14.01,2013-08-31 02:23:00,
2013-08-30 22:24:00,82.5,77.2,29.94,ESE,117,2.0,3.0,84,0.00,,FEW,0.00,0.00,VWS V14.01,2013-08-31 02:24:00,
2013-08-30 22:25:00,82.5,77.2,29.94,SSE,158,2.0,3.0,84,0.00,,FEW,0.00,0.00,VWS V14.01,2013-08-31 02:25:00,
2013-08-30 22:26:00,82.5,77.2,29.94,SE,133,2.0,3.0,84,0.00,,FEW,0.00,0.00,VWS V14.01,2013-08-31 02:26:00,
2013-08-30 22:27:00,82.4,77.1,29.94,SE,143,1.0,5.0,84,0.00,,FEW,0.00,0.00,VWS V14.01,2013-08-31 02:27:00,
2013-08-30 22:28:00,82.4,77.1,29.94,ESE,121,4.0,5.0,84,0.00,,FEW,0.00,0.00,VWS V14.01,2013-08-31 02:28:00,
2013-08-30 22:29:00,82.4,77.1,29.94,South,175,1.0,5.0,84,0.00,,FEW,0.00,0.00,VWS V14.01,2013-08-31 02:29:00,
2013-08-30 22:30:00,82.4,77.1,29.94,SE,129,0.0,5.0,84,0.00,,FEW,0.00,0.00,VWS V14.01,2013-08-31 02:30:00,
2013-08-30 22:31:00,82.4,77.1,29.94,SE,129,1.0,5.0,84,0.00,,FEW,0.00,0.00,VWS V14.01,2013-08-31 02:31:00,
2013-08-30 22:32:00,82.4,77.1,29.94,SSE,148,3.0,5.0,84,0.00,,FEW,0.00,0.00,VWS V14.01,2013-08-31 02:32:00,
2013-08-30 22:33:00,82.4,77.1,29.94,SE,136,1.0,2.0,84,0.00,,FEW,0.00,0.00,VWS V14.01,2013-08-31 02:33:00,
2013-08-30 22:34:00,82.4,77.1,29.94,SSE,156,2.0,6.0,84,0.00,,FEW,0.00,0.00,VWS V14.01,2013-08-31 02:34:00,
2013-08-30 22:35:00,82.4,77.1,29.94,SE,142,2.0,6.0,84,0.00,,FEW,0.00,0.00,VWS V14.01,2013-08-31 02:35:00,
2013-08-30 22:36:00,82.4,77.1,29.94,South,170,3.0,6.0,84,0.00,,FEW,0.00,0.00,VWS V14.01,2013-08-31 02:36:00,
2013-08-30 22:37:00,82.3,77.0,29.94,SE,138,2.0,6.0,84,0.00,,FEW,0.00,0.00,VWS V14.01,2013-08-31 02:37:00,
2013-08-30 22:38:00,82.4,77.1,29.94,SSE,148,2.0,6.0,84,0.00,,FEW,0.00,0.00,VWS V14.01,2013-08-31 02:38:00,
2013-08-30 22:39:00,82.4,77.1,29.94,SSE,148,2.0,6.0,84,0.00,,FEW,0.00,0.00,VWS V14.01,2013-08-31 02:39:00,
2013-08-30 22:40:00,82.4,77.1,29.94,SE,134,3.0,6.0,84,0.00,,FEW,0.00,0.00,VWS V14.01,2013-08-31 02:40:00,
2013-08-30 22:41:00,82.3,77.0,29.94,South,178,1.0,6.0,84,0.00,,FEW,0.00,0.00,VWS V14.01,2013-08-31 02:41:00,
2013-08-30 22:42:00,82.3,77.0,29.94,South,176,3.0,6.0,84,0.00,,FEW,0.00,0.00,VWS V14.01,2013-08-31 02:42:00,
2013-08-30 22:43:00,82.3,77.0,29.94,South,173,0.0,2.0,84,0.00,,FEW,0.00,0.00,VWS V14.01,2013-08-31 02:43:00,
2013-08-30 22:44:00,82.3,77.0,29.94,SE,126,3.0,3.0,84,0.00,,FEW,0.00,0.00,VWS V14.01,2013-08-31 02:44:00,
2013-08-30 22:45:00,82.3,77.0,29.94,SE,135,0.0,5.0,84,0.00,,FEW,0.00,0.00,VWS V14.01,2013-08-31 02:45:00,
2013-08-30 22:46:00,82.2,76.9,29.94,South,183,1.0,5.0,84,0.00,,FEW,0.00,0.00,VWS V14.01,2013-08-31 02:46:00,
2013-08-30 22:47:00,82.2,76.9,29.94,South,178,0.0,5.0,84,0.00,,FEW,0.00,0.00,VWS V14.01,2013-08-31 02:47:00,
2013-08-30 22:49:00,82.2,76.9,29.94,South,178,2.0,5.0,84,0.00,,FEW,0.00,0.00,VWS V14.01,2013-08-31 02:49:00,
2013-08-30 22:50:00,82.1,76.8,29.94,South,190,2.0,5.0,84,0.00,,FEW,0.00,0.00,VWS V14.01,2013-08-31 02:50:00,
2013-08-30 22:52:00,82.1,76.8,29.94,South,182,1.0,5.0,84,0.00,,FEW,0.00,0.00,VWS V14.01,2013-08-31 02:52:00,
2013-08-30 22:53:00,82.2,76.9,29.94,SSE,166,2.0,2.0,84,0.00,,FEW,0.00,0.00,VWS V14.01,2013-08-31 02:53:00,
2013-08-30 22:54:00,82.1,76.8,29.94,South,190,2.0,3.0,84,0.00,,FEW,0.00,0.00,VWS V14.01,2013-08-31 02:54:00,
2013-08-30 22:56:00,82.1,76.8,29.94,South,178,2.0,3.0,84,0.00,,FEW,0.00,0.00,VWS V14.01,2013-08-31 02:56:00,
2013-08-30 22:57:00,82.1,76.8,29.94,SSW,200,1.0,3.0,84,0.00,,FEW,0.00,0.00,VWS V14.01,2013-08-31 02:57:00,
2013-08-30 22:58:00,82.1,76.8,29.94,SW,214,4.0,4.0,84,0.00,,FEW,0.00,0.00,VWS V14.01,2013-08-31 02:58:00,
2013-08-30 22:59:00,82.1,76.8,29.94,South,183,1.0,4.0,84,0.00,,FEW,0.00,0.00,VWS V14.01,2013-08-31 02:59:00,
2013-08-30 23:00:00,82.1,76.8,29.94,South,183,1.0,4.0,84,0.00,,FEW,0.00,0.00,VWS V14.01,2013-08-31 03:00:00,
2013-08-30 23:01:00,82.1,76.8,29.94,SSW,197,1.0,4.0,84,0.00,,FEW,0.00,0.00,VWS V14.01,2013-08-31 03:01:00,
2013-08-30 23:02:00,82.1,76.8,29.94,South,189,2.0,4.0,84,0.00,,FEW,0.00,0.00,VWS V14.01,2013-08-31 03:02:00,
2013-08-30 23:03:00,82.1,76.8,29.94,South,176,1.0,4.0,84,0.00,,FEW,0.00,0.00,VWS V14.01,2013-08-31 03:03:00,
2013-08-30 23:04:00,82.1,76.8,29.94,SSE,163,2.0,4.0,84,0.00,,FEW,0.00,0.00,VWS V14.01,2013-08-31 03:04:00,
2013-08-30 23:05:00,82.1,76.8,29.94,SSE,152,3.0,4.0,84,0.00,,FEW,0.00,0.00,VWS V14.01,2013-08-31 03:05:00,
2013-08-30 23:06:00,82.1,76.8,29.94,South,175,0.0,4.0,84,0.00,,FEW,0.00,0.00,VWS V14.01,2013-08-31 03:06:00,
2013-08-30 23:07:00,82.1,76.8,29.94,South,189,4.0,5.0,84,0.00,,FEW,0.00,0.00,VWS V14.01,2013-08-31 03:07:00,
2013-08-30 23:08:00,82.0,76.7,29.94,SSE,166,1.0,5.0,84,0.00,,FEW,0.00,0.00,VWS V14.01,2013-08-31 03:08:00,
2013-08-30 23:09:00,82.0,76.3,29.94,South,191,4.0,5.0,83,0.00,,FEW,0.00,0.00,VWS V14.01,2013-08-31 03:09:00,
2013-08-30 23:11:00,82.0,76.3,29.94,South,175,4.0,5.0,83,0.00,,FEW,0.00,0.00,VWS V14.01,2013-08-31 03:11:00,
2013-08-30 23:13:00,82.0,76.3,29.94,South,184,2.0,5.0,83,0.00,,FEW,0.00,0.00,VWS V14.01,2013-08-31 03:13:00,
2013-08-30 23:14:00,82.0,76.3,29.94,South,175,3.0,3.0,83,0.00,,FEW,0.00,0.00,VWS V14.01,2013-08-31 03:14:00,
2013-08-30 23:16:00,82.0,76.3,29.94,South,170,0.0,3.0,83,0.00,,FEW,0.00,0.00,VWS V14.01,2013-08-31 03:16:00,
2013-08-30 23:18:00,82.0,76.3,29.94,South,186,0.0,4.0,83,0.00,,FEW,0.00,0.00,VWS V14.01,2013-08-31 03:18:00,
2013-08-30 23:19:00,82.0,76.3,29.94,SSE,162,1.0,4.0,83,0.00,,FEW,0.00,0.00,VWS V14.01,2013-08-31 03:19:00,
2013-08-30 23:20:00,82.0,76.3,29.94,SSE,155,1.0,4.0,83,0.00,,FEW,0.00,0.00,VWS V14.01,2013-08-31 03:20:00,
2013-08-30 23:21:00,82.0,76.3,29.94,South,177,2.0,4.0,83,0.00,,FEW,0.00,0.00,VWS V14.01,2013-08-31 03:21:00,
2013-08-30 23:22:00,82.0,76.3,29.94,SSE,163,2.0,4.0,83,0.00,,FEW,0.00,0.00,VWS V14.01,2013-08-31 03:22:00,
2013-08-30 23:23:00,82.0,76.3,29.94,SSE,163,0.0,0.0,83,0.00,,FEW,0.00,0.00,VWS V14.01,2013-08-31 03:23:00,
2013-08-30 23:24:00,82.0,76.3,29.94,South,184,3.0,3.0,83,0.00,,FEW,0.00,0.00,VWS V14.01,2013-08-31 03:24:00,
2013-08-30 23:25:00,82.0,76.3,29.94,South,177,0.0,4.0,83,0.00,,FEW,0.00,0.00,VWS V14.01,2013-08-31 03:25:00,
2013-08-30 23:27:00,81.9,76.2,29.94,SSE,154,2.0,4.0,83,0.00,,FEW,0.00,0.00,VWS V14.01,2013-08-31 03:27:00,
2013-08-30 23:28:00,82.0,76.3,29.94,South,175,0.0,4.0,83,0.00,,FEW,0.00,0.00,VWS V14.01,2013-08-31 03:28:00,
2013-08-30 23:29:00,82.0,76.3,29.94,South,175,0.0,4.0,83,0.00,,FEW,0.00,0.00,VWS V14.01,2013-08-31 03:29:00,
2013-08-30 23:30:00,81.9,76.2,29.94,SSE,167,0.0,4.0,83,0.00,,FEW,0.00,0.00,VWS V14.01,2013-08-31 03:30:00,
2013-08-30 23:32:00,82.0,76.3,29.94,South,176,0.0,4.0,83,0.00,,FEW,0.00,0.00,VWS V14.01,2013-08-31 03:32:00,
2013-08-30 23:33:00,82.0,76.3,29.94,SSE,155,1.0,3.0,83,0.00,,FEW,0.00,0.00,VWS V14.01,2013-08-31 03:33:00,
2013-08-30 23:34:00,82.0,76.3,29.94,SE,142,3.0,3.0,83,0.00,,FEW,0.00,0.00,VWS V14.01,2013-08-31 03:34:00,
2013-08-30 23:35:00,82.0,76.3,29.94,SE,142,1.0,3.0,83,0.00,,FEW,0.00,0.00,VWS V14.01,2013-08-31 03:35:00,
2013-08-30 23:36:00,82.0,76.3,29.94,SSE,161,1.0,3.0,83,0.00,,FEW,0.00,0.00,VWS V14.01,2013-08-31 03:36:00,
2013-08-30 23:37:00,82.0,76.3,29.94,South,190,1.0,3.0,83,0.00,,FEW,0.00,0.00,VWS V14.01,2013-08-31 03:37:00,
2013-08-30 23:38:00,82.0,76.3,29.94,SE,128,2.0,3.0,83,0.00,,FEW,0.00,0.00,VWS V14.01,2013-08-31 03:38:00,
2013-08-30 23:39:00,82.0,76.3,29.94,SE,128,1.0,3.0,83,0.00,,FEW,0.00,0.00,VWS V14.01,2013-08-31 03:39:00,
2013-08-30 23:40:00,82.0,76.3,29.94,SSE,151,2.0,3.0,83,0.00,,FEW,0.00,0.00,VWS V14.01,2013-08-31 03:40:00,
2013-08-30 23:41:00,82.0,76.3,29.94,SSE,151,0.0,3.0,83,0.00,,FEW,0.00,0.00,VWS V14.01,2013-08-31 03:41:00,
2013-08-30 23:43:00,82.0,76.3,29.94,SSE,149,2.0,4.0,83,0.00,,FEW,0.00,0.00,VWS V14.01,2013-08-31 03:43:00,
2013-08-30 23:44:00,82.0,76.3,29.94,SE,139,1.0,4.0,83,0.00,,FEW,0.00,0.00,VWS V14.01,2013-08-31 03:44:00,
2013-08-30 23:45:00,82.0,76.3,29.94,SE,139,0.0,4.0,83,0.00,,FEW,0.00,0.00,VWS V14.01,2013-08-31 03:45:00,
2013-08-30 23:46:00,82.0,76.3,29.94,SE,139,1.0,4.0,83,0.00,,FEW,0.00,0.00,VWS V14.01,2013-08-31 03:46:00,
2013-08-30 23:48:00,82.0,76.3,29.94,South,169,5.0,5.0,83,0.00,,FEW,0.00,0.00,VWS V14.01,2013-08-31 03:48:00,
2013-08-30 23:49:00,81.9,76.2,29.94,SSE,153,0.0,5.0,83,0.00,,FEW,0.00,0.00,VWS V14.01,2013-08-31 03:49:00,
2013-08-30 23:50:00,82.0,76.3,29.94,SSE,153,1.0,5.0,83,0.00,,FEW,0.00,0.00,VWS V14.01,2013-08-31 03:50:00,
2013-08-30 23:51:00,81.9,76.2,29.94,SSE,153,0.0,5.0,83,0.00,,FEW,0.00,0.00,VWS V14.01,2013-08-31 03:51:00,
2013-08-30 23:52:00,81.9,76.2,29.94,SSE,148,0.0,5.0,83,0.00,,FEW,0.00,0.00,VWS V14.01,2013-08-31 03:52:00,
2013-08-30 23:53:00,81.9,76.2,29.94,SSE,166,0.0,2.0,83,0.00,,FEW,0.00,0.00,VWS V14.01,2013-08-31 03:53:00,
2013-08-30 23:54:00,81.9,76.2,29.94,SSE,148,0.0,3.0,83,0.00,,FEW,0.00,0.00,VWS V14.01,2013-08-31 03:54:00,
2013-08-30 23:55:00,81.9,76.2,29.94,SSE,148,1.0,3.0,83,0.00,,FEW,0.00,0.00,VWS V14.01,2013-08-31 03:55:00,
2013-08-30 23:57:00,81.9,76.2,29.94,SE,139,4.0,5.0,83,0.00,,FEW,0.00,0.00,VWS V14.01,2013-08-31 03:57:00,
2013-08-30 23:58:00,81.9,76.2,29.94,SE,138,2.0,5.0,83,0.00,,FEW,0.00,0.00,VWS V14.01,2013-08-31 03:58:00,